                ,  0.482,  0.579,  0.676,  0.773,  0.870,  0.967,  1.064,  1.161,  1.258,  1.354,  1.451,  1.548,  1.645,  1.742,  1.839,  1.936,  2.033,  2.130,  2.227,  2.324,  2.421,  2.518,  2.615,  2.712,  2.809,  2.906,  3.003,  3.099,  3.196,  3.293,  3.390,  3.487,  3.584,  3.681,  3.778,  3.875,  3.972,  4.069,  4.166,  4.263,  4.360,  4.457,  4.554,  4.651,  4.748,  4.844,  4.941,  5.038,  5.135,  5.232,  5.329,  5.426,  5.523,  5.620,  5.717,  5.814,  5.911,  6.008,  6.105,  6.202,  6.299,  6.396,  6.493,  6.589,  6.686,  6.783,  6.880,  6.977,  7.074,  7.171,  7.268,  7.365,  7.462,  7.559,  7.656,  7.753,  7.850,  7.947,  8.044,  8.141
2012/02/07 00:00,   -0.8,    1.3,    3.4,    4.3,    4.3,    4.1,    4.6,    5.7,    8.0,    8.2,  999.0,  999.0,  999.0,  999.0,  999.0,  999.0,  999.0,  999.0,  999.0,  999.0,  999.0,  999.0,  999.0,   18.9,   19.1,   18.2,   18.2,   18.3,   18.3,   18.4,   18.3,   18.1,   18.2,   18.9,   19.4,   21.6,  999.0,  999.0,  999.0,   17.3,   17.3,   17.3,   17.4,   17.5,   17.4,   17.4,   17.4,   17.4,   17.4,   17.5,   17.4,   17.4,   17.5,   17.4,   17.4,   17.4,   17.4,   17.5,   17.4,   17.4,   17.4,   17.5,   17.5,   17.4,   17.5,   17.5,   17.4,   17.4,   17.6,   17.5,   17.5,   17.5,   17.2,   17.2,   17.4,   17.4,   17.4,  999.0,  999.0,  999.0
2012/02/07 00:10,    2.0,    2.5,    2.8,  999.0,    3.7,    3.9,    5.2,    7.0,    8.1,    9.0,    9.7,  999.0,   11.3,  999.0,  999.0,  999.0,   -5.3,  -12.1,  999.0,   19.3,  999.0,  999.0,  999.0,  999.0,   19.9,   19.9,   19.8,   19.3,   18.9,  999.0,  999.0,  999.0,   20.5,  999.0,  999.0,  999.0,  999.0,   17.4,   17.4,   17.5,   17.5,   17.5,   17.5,  999.0,  999.0,  999.0,  999.0,  999.0,  999.0,  999.0,  999.0,  999.0,  999.0,   26.3,   26.3,   26.3,   26.4,   26.3,   26.3,   26.4,   26.3,   26.3,   26.3,   26.3,   26.3,   26.3,   26.3,   26.4,   26.3,   26.3,   26.3,   26.3,   26.3,   26.3,   26.3,   26.3,   26.3,   26.3,   26.3,   26.3
2012/02/07 00:20,    3.5,    4.1,  999.0,  999.0,  999.0,    6.0,    6.0,    7.2,    7.7,    8.7,   10.2,    9.3,    9.1,   10.0,   15.0,  999.0,  999.0,  999.0,  999.0,   -2.2,  999.0,  999.0,  999.0,  999.0,  999.0,  999.0,   18.1,   15.2,   16.3,   17.1,   19.9,   17.4,   17.4,  999.0,  999.0,   17.2,   17.4,   17.5,   17.3,   17.3,   17.2,  999.0,  999.0,  999.0,  999.0,  999.0,  999.0,   26.3,   26.3,   26.3,   26.3,   26.3,   26.3,   26.3,   26.3,   26.3,   26.3,   26.3,   26.2,   26.2,   26.2,   26.2,   26.2,   26.2,   26.2,   26.2,   26.2,   26.2,   26.2,   26.2,   26.2,   26.2,   26.2,   26.3,   26.2,   26.3,   26.3,   26.2,   26.2,   26.2
2012/02/07 00:30,    3.7,  999.0,    1.3,    0.3,  999.0,   -0.3,   -0.1,  999.0,  999.0,  999.0,  999.0,  999.0,    2.0,  999.0,  999.0,  999.0,  999.0,  999.0,  999.0,  999.0,  999.0,  999.0,  999.0,   19.8,   20.4,   18.7,   18.4,   18.2,   18.2,   18.7,   17.6,   17.6,   17.6,   17.4,   17.4,   17.4,   17.4,   17.3,   17.2,   17.2,   17.3,   17.4,   17.4,   17.4,   17.4,   17.3,   17.3,   17.3,   18.3,   18.3,   18.2,   18.2,   18.2,   18.2,   18.2,   18.2,   18.2,   18.2,   18.2,   20.1,   18.5,   18.5,   18.5,   20.1,   21.9,   21.9,   20.0,   20.0,   20.0,   20.0,   20.1,   20.1,   20.1,   19.2,   19.1,   19.1,   20.0,   19.9,   20.0,   20.0
2012/02/07 00:40,    6.2,    8.6,  999.0,    3.7,    6.1,  999.0,  999.0,  999.0,    9.1,    7.2,  999.0,  999.0,  999.0,  999.0,  999.0,  999.0,  999.0,  999.0,  999.0,  999.0,  999.0,  999.0,   13.2,   17.1,   17.7,   18.4,   18.8,   17.3,   17.4,   17.7,   18.6,   12.6,   17.6,  999.0,  999.0,   19.7,   19.8,   22.0,   24.2,   24.2,   24.2,   24.2,   24.1,   23.1,   23.1,   23.2,   24.0,   23.9,   24.7,   23.2,   24.0,   23.3,   23.5,   24.7,   22.1,   23.2,   24.0,   24.1,   19.8,   22.2,   23.3,   22.3,   23.7,   23.4,   24.5,   24.6,   22.5,   24.4,   24.4,   24.6,   23.4,   24.5,   24.7,   22.5,   24.4,   24.6,   22.5,   24.5,   24.3,   24.7
2012/02/07 00:50,    7.3,  999.0,    9.0,  999.0,  999.0,    9.0,   10.6,   12.4,   15.2,   16.5,  999.0,  999.0,  999.0,  -25.8,  999.0,  -24.3,  999.0,  999.0,  999.0,  999.0,  999.0,  999.0,  999.0,   21.8,   21.3,   21.6,   21.6,   21.9,   22.5,   22.3,   22.5,   25.9,   27.9,  999.0,   27.3,   27.5,   27.4,   27.3,   27.2,   27.1,   27.3,   27.3,   27.2,   26.9,   26.9,   26.6,   26.8,   27.4,   26.6,   27.2,   27.0,   27.4,   27.9,   27.9,   28.0,   27.7,   27.8,   27.5,   28.3,   27.8,   27.9,   28.5,   27.5,   28.0,   28.4,   28.1,   27.7,   28.3,   28.1,   28.0,   28.6,   28.2,   28.1,   28.0,   28.2,   27.5,   27.9,   28.4,   28.2,   28.4
2012/02/07 01:00,  999.0,    8.1,  999.0,  999.0,  999.0,    7.6,    9.5,   11.4,   13.9,  999.0,  999.0,  999.0,  999.0,  -24.6,  -24.5,  999.0,  -23.9,  999.0,  999.0,  999.0,  999.0,  999.0,  999.0,  999.0,   23.3,   23.0,   22.8,   23.5,   24.4,   24.3,   25.2,   27.0,   26.9,   27.2,   27.2,   27.5,   27.8,   28.0,   28.1,   27.9,   27.7,   27.5,   27.6,   27.6,   27.6,   27.2,   27.3,   27.1,   27.1,   26.9,   26.3,   27.2,   26.2,   27.8,   27.8,   27.8,   27.4,   29.0,   29.1,   27.8,   28.1,   26.9,   27.3,   27.7,   28.0,   27.9,   27.8,   27.9,   27.5,   27.9,   27.8,   27.4,   27.9,   28.0,   28.0,   27.7,   27.4,   29.1,   29.1,  999.0
2012/02/07 01:10,    0.1,    2.4,  999.0,    6.1,    7.0,    8.7,  999.0,  999.0,  999.0,   -5.1,  -26.1,  -24.7,  -23.3,  -22.3,  -22.5,  -22.2,  -21.3,  -21.6,  -20.3,  999.0,  999.0,  999.0,  999.0,   25.4,   23.4,   23.4,   23.5,   23.5,   22.3,  999.0,  999.0,   25.8,  999.0,   25.9,   25.7,   25.7,   24.8,   25.1,   26.3,   26.5,   27.4,  999.0,   20.8,    8.9,    8.7,    2.8,    8.6,    8.5,   12.5,   14.2,   14.3,    8.7,    5.7,    5.8,    5.8,    5.7,    5.7,   11.9,   11.9,   11.9,   12.0,   11.9,   11.9,   11.9,   11.9,   11.9,   12.0,   12.0,   11.9,   12.9,   12.9,   12.9,   12.9,   13.0,   12.0,   11.9,   11.9,   11.9,    8.6,   12.9
2012/02/07 01:20,  999.0,  999.0,  999.0,  999.0,  999.0,  999.0,  999.0,  999.0,  999.0,  -26.0,  -24.5,  -23.3,  -22.3,  -21.3,  -21.1,  -20.9,  -20.7,  -21.0,  -21.3,  999.0,  999.0,  999.0,  999.0,  999.0,   24.9,   24.6,   24.9,   24.7,   26.2,   26.1,   25.9,   25.9,   25.7,   25.8,   26.0,   25.6,   25.5,   18.7,   14.3,   14.0,   14.0,   14.0,   17.9,   17.8,   17.9,   21.3,   17.4,   17.4,   17.3,   17.4,   17.4,   17.4,   17.4,   17.4,   17.4,   17.4,   17.4,   11.5,   15.9,   15.9,   19.6,   21.8,   21.8,   21.9,   21.9,   21.9,   21.8,   21.8,   21.8,   17.4,   21.7,   17.4,   17.4,   21.8,   21.7,   21.8,   21.8,   21.7,   12.9,   13.0
2012/02/07 01:30,  999.0,  999.0,  999.0,  999.0,  999.0,  999.0,  999.0,  999.0,   -4.6,  -12.9,  -20.9,  -20.8,  -20.9,   -7.1,  -14.9,  -20.7,  -20.3,   -7.0,  -11.0,   -1.3,  999.0,  999.0,  999.0,  999.0,    3.3,   -9.0,   -8.9,   -9.0,   -0.2,    2.8,    2.8,   -0.2,   -9.1,   -9.1,  999.0,   -9.1,   -6.0,   -6.1,   -3.4,   -6.1,  999.0,  999.0,   -0.1,   -0.1,   -0.1,   -0.1,   -0.1,   -0.0,   -0.0,   -0.1,   -0.1,   -0.2,   -0.1,   -0.1,   -0.2,   -0.1,   -0.1,   -0.1,   -0.1,   -0.1,   -0.1,   -0.2,   -0.1,   -0.1,   -0.1,   -0.1,   -0.1,   -0.1,   -0.1,   -0.1,   -0.1,   -0.1,   -0.1,   -0.1,   -0.2,   -0.1,   -0.1,   -0.1,   -0.1,   -0.1
2012/02/07 01:40,   -0.2,  999.0,   -0.1,   -0.7,  999.0,   -0.0,   -0.1,   -1.1,    0.5,    1.8,    3.0,    2.6,    0.5,    1.1,    0.7,    1.4,    2.6,    2.0,    6.2,    2.1,    8.9,   13.6,   13.4,   13.3,   14.7,   14.6,   14.7,   14.7,   14.3,   13.2,   14.3,   14.2,   17.5,   12.2,   13.1,   13.1,   13.1,   13.1,   14.0,   13.0,   13.1,   13.1,   16.6,   14.0,   14.0,   14.1,   14.8,   17.4,   17.4,   14.8,   14.8,   14.8,   17.4,   18.3,   17.4,   17.4,   17.4,   17.4,   17.5,   17.4,   18.6,   18.6,   18.6,   19.7,   19.7,   21.0,   21.0,   21.0,   21.0,   21.0,   21.0,   26.2,   21.0,   21.0,   20.9,   21.0,   20.9,   21.0,   20.9,   26.2
2012/02/07 01:50,    8.5,  999.0,  999.0,  999.0,   -0.1,   -0.0,   -0.1,   -0.2,   -0.1,    1.2,    1.6,    1.6,    1.5,    1.6,    1.4,    1.2,    1.5,    4.1,    4.2,    5.1,    4.2,    4.4,    4.2,   10.1,   10.0,   12.1,   12.1,   10.0,   10.0,   10.1,   10.1,   10.1,   12.2,   12.2,   10.1,   10.0,   12.1,   10.1,   10.1,   10.0,   10.1,    9.5,    7.9,   10.0,    9.5,    7.9,   10.0,    8.5,   10.8,   10.0,    8.5,   10.1,   10.1,    8.6,   12.0,   10.8,   12.1,   10.0,   10.0,   10.1,   10.1,   10.1,   12.2,   12.2,   10.1,   10.0,   20.3,  999.0,  999.0,  999.0,  999.0,  999.0,  999.0,  999.0,  999.0,  999.0,  999.0,   20.2,   14.4,   10.8
2012/02/07 02:00,  999.0,  999.0,  999.0,  999.0,  999.0,    0.1,   -0.2,   -0.2,   -0.1,   -0.1,   -0.1,    3.3,    3.3,    3.3,    2.4,    3.3,    3.3,    3.3,    3.3,    5.5,    8.5,  999.0,    8.5,    8.5,   12.9,   12.9,   13.0,   17.3,   17.3,   13.0,   12.9,   13.0,   13.0,   17.3,   17.4,   17.3,   17.3,   17.4,   17.3,   15.2,   15.1,   15.1,   15.1,   15.1,   15.1,   14.4,   15.1,   17.3,   15.1,   15.1,   17.2,   17.3,   17.3,   17.3,   17.2,   17.3,   17.3,   17.4,   17.3,   17.3,   17.3,   17.4,   17.3,   17.3,   17.4,   17.3,   17.3,   17.4,   14.4,   14.5,   14.5,   14.5,   14.4,   14.5,   14.4,   14.4,   14.4,   17.3,   15.1,   15.1
2012/02/07 02:10,    3.2,    3.9,    4.5,  999.0,  999.0,  999.0,    0.3,  999.0,    4.8,    6.5,    5.0,    5.3,    4.2,    4.0,    5.3,    5.4,    5.6,    5.3,    5.6,    7.7,   12.9,    8.5,    7.5,   17.0,   20.0,   18.7,   18.7,   18.7,   18.7,   18.6,   18.7,   18.7,   18.7,   18.7,   17.5,   17.5,   18.8,   17.5,   18.6,   18.7,   19.9,   19.9,   17.6,   19.9,   19.8,   19.8,   17.5,   17.5,   17.5,   17.5,   17.5,   17.5,   17.5,   17.5,   17.4,   17.5,   17.5,   17.5,   17.4,   17.5,   17.5,   17.5,   17.5,   17.5,   17.5,   17.5,   17.6,   17.5,   17.5,   17.6,   17.6,   17.6,   17.6,   17.6,   17.5,   17.6,   17.5,   17.5,   17.5,   17.5
2012/02/07 02:20,   12.7,   15.1,   15.0,   10.8,   15.3,    6.2,  999.0,  999.0,   -5.7,   -2.7,  999.0,  999.0,   12.5,    3.5,    4.2,    7.3,  -11.4,  -15.4,    4.3,  999.0,   13.2,  999.0,  999.0,   21.3,   22.7,   24.6,   25.0,   25.1,   25.2,   25.1,   24.5,   24.2,   23.9,   23.9,   24.1,   24.3,   24.4,   17.0,   24.0,   24.0,   24.1,  999.0,  999.0,  999.0,   13.7,   14.2,    8.6,    8.6,    8.6,  999.0,  999.0,  999.0,  999.0,  999.0,  999.0,  999.0,  999.0,  999.0,  999.0,  999.0,    8.6,  999.0,  999.0,  999.0,  999.0,  999.0,  999.0,  999.0,  999.0,  999.0,  999.0,  999.0,  999.0,  999.0,    8.6,  999.0,  999.0,  999.0,  999.0,  999.0
2012/02/07 02:30,    8.0,    9.6,  999.0,  999.0,  999.0,  999.0,  999.0,  999.0,    2.8,  -24.0,  -15.6,  -24.2,  -24.0,  -24.1,  -23.7,  -23.4,  -22.3,  -22.7,  999.0,  999.0,  999.0,  999.0,  999.0,  999.0,  999.0,  999.0,   25.4,   25.7,   25.7,   25.9,   25.7,   25.8,   25.8,   25.8,  999.0,  999.0,  999.0,  999.0,   17.5,   17.5,   17.5,   17.5,   17.5,   17.5,   17.5,   17.5,   17.5,   17.5,   17.5,   17.5,   17.5,   17.5,   17.5,   17.4,   17.5,   17.5,   17.5,   17.5,   17.5,   17.5,   17.5,   18.6,   18.6,   18.6,   18.6,   18.6,   18.6,   18.6,   18.6,   18.6,   19.0,   20.5,   22.0,   22.1,   22.1,   20.5,   20.5,   18.9,   19.0,   19.0
2012/02/07 02:40,  999.0,  999.0,  999.0,  999.0,  999.0,  999.0,  999.0,  999.0,  999.0,  -11.8,   -8.7,  -22.4,   -7.2,   -6.8,   -7.0,   -2.0,   -2.0,   -7.6,  999.0,  999.0,  999.0,  999.0,  999.0,  999.0,  999.0,   23.9,   23.5,   24.2,  999.0,  999.0,  999.0,   20.7,  999.0,  999.0,  999.0,  999.0,  999.0,   17.4,   17.4,   17.3,   17.3,   17.3,   17.4,   17.5,   17.4,   17.3,   17.4,   17.4,   17.4,   17.4,   17.4,   17.4,   17.4,   17.3,   17.4,  999.0,   17.3,   17.4,   17.4,   17.4,   17.4,   17.3,   17.4,   17.3,   17.3,   17.4,   17.4,   17.4,   17.4,   17.4,   17.4,   17.4,   17.4,   17.5,   17.4,   17.4,   17.4,   17.4,   17.4,   17.4
2012/02/07 02:50,    3.9,  999.0,  999.0,  999.0,   13.3,  999.0,  999.0,  999.0,  999.0,  999.0,  -22.7,  -21.5,  -21.3,  -20.9,  -20.8,  -21.0,  -21.1,  -21.0,  -20.3,  999.0,  999.0,  999.0,  999.0,  999.0,   21.5,   23.3,   23.4,   23.5,   23.4,   23.3,   23.2,   23.2,   23.0,  999.0,  999.0,  999.0,   17.4,   17.4,   17.3,   17.4,   17.4,   17.4,   17.4,   17.4,   17.4,   17.4,   17.4,   17.4,   17.4,   17.4,   17.4,   17.4,   17.4,   17.4,   17.4,   17.4,   17.4,   17.4,   17.4,   17.4,   17.4,   17.4,   17.4,   17.4,   17.4,   17.4,   17.4,   17.4,   17.4,   17.4,   17.4,   17.4,   17.4,   17.4,   17.4,   17.4,   17.4,   17.3,   17.4,   17.4
2012/02/07 03:00,  999.0,    6.2,  999.0,  999.0,  999.0,  999.0,  999.0,  999.0,  999.0,  -24.2,  -22.6,  -22.0,  999.0,  -21.1,  999.0,  999.0,  999.0,  999.0,  -18.8,  999.0,  999.0,  999.0,  999.0,   26.8,  999.0,  999.0,  999.0,  999.0,  999.0,   17.3,   17.4,   17.4,   17.4,   17.3,   17.4,   19.1,   17.4,   17.5,   17.5,   19.1,   19.5,   19.5,   19.6,   17.4,   19.6,   19.6,   19.6,   19.6,   19.5,   19.6,   17.4,   19.5,   17.4,   19.6,   19.5,   19.6,   19.6,   19.6,   19.6,   17.5,   17.4,   17.4,   19.5,   17.4,   19.6,   19.6,   17.5,   19.2,   17.5,   19.1,   19.5,   19.5,   19.6,   17.4,   19.6,   19.6,   19.6,   19.6,   17.3,   19.6
2012/02/07 03:10,  999.0,  999.0,    9.5,  999.0,  999.0,  999.0,  999.0,  999.0,  999.0,  -24.5,  -23.8,  -22.9,  -21.6,  -20.9,  -20.2,  -19.8,  -19.4,  -20.2,  -19.8,  999.0,  999.0,  999.0,  999.0,  999.0,  999.0,  999.0,   20.8,   21.0,   19.6,   18.1,   19.2,   19.2,   19.2,   20.1,   20.1,   20.1,   20.0,   20.0,   20.1,   20.0,   20.0,   20.7,   20.8,   20.0,   20.0,   20.1,   20.7,   21.8,   20.0,   19.1,   19.1,   19.2,   17.4,   18.5,   20.1,   20.1,   20.1,   20.1,   20.1,   20.0,   20.1,   19.2,   20.0,   20.1,   20.1,   20.1,   20.0,   20.1,   20.1,   20.0,   20.0,   20.1,   20.1,   20.0,   20.0,   20.1,   20.1,   20.0,   20.0,   19.1
2012/02/07 03:20,  999.0,    8.2,  999.0,  999.0,  999.0,  999.0,  999.0,  999.0,   17.4,    3.4,  999.0,  -23.3,  -22.8,  -21.5,  -20.4,  -18.5,  -17.0,  -17.9,  -17.4,  999.0,  999.0,  999.0,  999.0,  999.0,  999.0,  999.0,   24.4,   25.1,   25.4,  999.0,   25.9,   26.2,   26.1,   26.1,   26.4,   26.2,   26.3,   26.1,   26.3,   26.3,   26.3,   26.4,   26.3,   26.3,   26.3,   26.3,   26.3,   26.4,   26.4,  999.0,  999.0,  999.0,  999.0,   17.4,   17.4,   17.4,  999.0,  999.0,  999.0,  999.0,  999.0,  999.0,  999.0,  999.0,  999.0,  999.0,  999.0,  999.0,  999.0,  999.0,  999.0,  999.0,  999.0,  999.0,  999.0,  999.0,  999.0,  999.0,  999.0,  999.0
2012/02/07 03:30,    4.4,    7.5,    8.8,  999.0,  999.0,  999.0,  999.0,  999.0,  999.0,  999.0,  -24.4,  -24.2,  -23.5,  -22.2,  -21.0,  -20.0,  -18.9,  -18.8,  999.0,  999.0,  999.0,  999.0,  999.0,   25.1,  999.0,   24.9,   25.2,   25.6,   26.0,   26.2,   26.2,   26.2,   26.2,   26.3,   26.2,   26.2,   26.2,   26.2,   25.3,   25.4,   25.3,   25.4,   25.3,   26.2,   26.3,   26.3,   26.3,   26.2,   24.1,   21.9,   22.8,   21.8,   21.9,   22.7,   22.7,   22.7,   22.7,   22.8,   22.7,   22.7,   24.0,   22.9,   21.8,   20.9,   20.9,   20.9,   20.9,   20.9,   20.9,   20.9,   19.6,   19.7,   17.4,   19.7,   19.3,   19.2,   19.2,   19.3,   19.2,   19.3
2012/02/07 03:40,    4.4,  999.0,  999.0,   10.4,   12.0,  999.0,  999.0,  999.0,  999.0,  -14.7,  -17.7,  -24.4,  -23.8,  -19.1,  -23.6,  -22.9,  -21.5,  999.0,  999.0,  999.0,  999.0,  999.0,  999.0,   24.5,  999.0,   24.6,   25.5,   25.4,   25.7,   25.7,   25.8,   25.9,   26.2,   26.2,   26.2,   26.3,   26.2,   26.2,   26.2,   26.2,   26.1,   26.2,   26.2,   26.2,   26.2,   26.2,   26.2,   26.1,   26.2,   26.2,   26.2,   26.1,   26.2,   26.2,   26.1,   26.2,   26.2,   26.2,   26.1,   26.1,   26.1,   26.1,   26.2,   26.1,   26.1,   26.1,   26.1,   26.1,   26.1,   26.1,   24.0,   24.0,   24.1,   24.0,   22.7,   22.7,   20.4,   18.9,   18.3,   18.3
2012/02/07 03:50,    4.8,    8.6,   10.6,  999.0,  999.0,  999.0,  999.0,  999.0,  999.0,  999.0,   -4.1,  999.0,  -23.0,  -14.4,  -21.7,  -21.5,  -21.4,  -20.7,  999.0,  999.0,  999.0,  999.0,  999.0,  999.0,  999.0,   26.1,   26.7,   26.9,   27.0,   26.8,   26.9,   27.0,   26.6,   26.5,   26.7,   26.4,   26.3,   26.3,   26.3,   26.3,   26.3,   26.3,   26.2,   26.2,   26.2,   26.3,   26.3,   26.3,   26.3,   26.3,   26.3,   26.2,   24.0,   26.3,   26.3,   26.3,   26.3,   26.3,   22.7,   22.7,   22.7,   23.3,   19.7,   19.8,   18.7,   18.6,   18.6,   18.9,   18.7,   18.6,   18.6,   20.4,   20.3,   20.4,   20.4,   20.4,   22.0,   21.9,   21.9,   21.9
2012/02/07 04:00,    4.2,    7.6,  999.0,  999.0,  999.0,  999.0,  999.0,  999.0,  999.0,  999.0,  -24.5,  999.0,  -23.5,  999.0,  999.0,  999.0,  999.0,  999.0,  999.0,  999.0,  999.0,  999.0,  999.0,  999.0,  999.0,  999.0,   26.9,   26.8,   26.7,   26.4,   26.3,   26.3,   26.2,   26.2,   26.3,   26.3,   26.2,   26.3,   26.2,   26.2,   26.3,   26.2,   24.6,   24.7,   23.3,   23.2,   23.2,   23.1,   23.1,   21.6,   23.1,  999.0,   26.2,   26.2,  999.0,  999.0,   21.6,  999.0,   17.4,   17.3,   17.4,   17.3,   17.3,   17.3,   17.3,   17.3,   17.3,   17.4,   17.3,   17.2,   17.3,   17.3,   17.2,   20.2,   17.4,   20.3,   17.3,   17.3,   17.3,   17.3
2012/02/07 04:10,  999.0,  999.0,  999.0,  999.0,  999.0,  999.0,  999.0,  999.0,  999.0,   17.7,  999.0,  -22.5,  999.0,  999.0,  999.0,   -0.8,  999.0,  999.0,  999.0,  999.0,  999.0,  999.0,  999.0,  999.0,   26.8,  999.0,  999.0,  999.0,  999.0,  999.0,  999.0,  999.0,  999.0,  999.0,  999.0,  999.0,  999.0,  999.0,  999.0,  999.0,  999.0,  999.0,  999.0,  999.0,   17.4,   17.4,   17.4,   17.3,   17.4,   17.4,   17.3,   17.4,   17.4,   17.4,   17.4,   17.4,   17.4,   17.4,   17.3,   17.4,   17.4,   17.3,   17.4,   17.4,   17.4,   17.5,   17.3,   17.4,   17.4,   17.4,   17.4,   17.4,   17.4,   17.4,   17.3,   17.4,   17.4,   17.3,   17.4,   17.4
2012/02/07 04:20,    0.6,  999.0,  999.0,  999.0,  999.0,  999.0,  999.0,  999.0,  999.0,  999.0,  999.0,  999.0,  -22.6,  -22.1,  -21.2,  -20.8,  -20.5,  -20.5,  999.0,  999.0,  999.0,  999.0,  999.0,  999.0,  999.0,   27.2,   27.5,   27.7,   27.8,   27.7,   27.4,   27.5,   27.6,   27.8,   28.3,   28.3,  999.0,  999.0,  999.0,  999.0,  999.0,  999.0,  999.0,  999.0,  999.0,  999.0,    8.6,    8.6,   13.0,   13.0,   13.0,   14.5,   15.2,   15.2,   15.3,   15.2,   15.2,   15.2,   15.3,   17.5,   17.4,   17.5,   17.5,   17.4,   17.4,   17.4,   15.7,   15.7,   17.4,   15.7,   15.7,   15.7,   15.7,   15.7,   15.7,   15.6,   16.5,   16.5,   16.6,   16.6
2012/02/07 04:30,   -0.0,   -0.1,    0.5,    3.9,    7.6,   10.9,   11.4,   12.7,   12.9,  999.0,   14.1,   14.1,  999.0,   14.8,    2.5,   -3.0,   -2.1,  999.0,  999.0,  999.0,  999.0,  999.0,   25.4,   26.1,  999.0,   27.1,   27.6,   27.6,   28.0,   28.3,   28.5,  999.0,   24.8,   24.3,   24.9,   24.9,   25.0,   25.3,   24.1,   24.0,   26.4,   26.4,   25.5,   26.4,   26.3,   26.4,   26.4,   26.4,   26.4,   26.4,   21.1,   21.0,   21.9,   21.0,   21.0,   21.9,   21.9,   21.1,   21.9,   21.0,   21.0,   21.0,   21.0,   17.4,   17.3,   17.4,   17.4,   17.4,   17.4,   17.3,   17.4,   21.9,   21.0,   21.0,   21.0,   17.4,   17.4,   17.5,   21.1,   21.0
2012/02/07 04:40,    0.5,    0.5,    1.5,    3.2,    5.0,    8.7,   10.4,   11.4,   12.1,   12.6,   13.1,  999.0,  999.0,  999.0,  999.0,  999.0,  999.0,  999.0,  999.0,  999.0,  999.0,  999.0,   23.1,   24.4,  999.0,  999.0,   25.9,   27.5,   27.7,   27.9,   27.8,   28.0,  999.0,  999.0,  999.0,  999.0,  999.0,  999.0,  999.0,  999.0,   26.3,   26.3,   26.2,   26.3,   26.2,   26.2,   26.3,   26.2,   26.2,   26.3,   26.3,   26.3,   26.3,   26.3,   26.3,   26.3,   26.3,   26.3,   26.3,   26.4,   26.3,   26.2,   26.2,   26.2,   26.3,   26.2,   26.2,   26.3,   26.2,   26.2,   26.3,   26.3,   26.4,   26.3,   26.3,   26.3,   26.3,   26.3,   26.3,   26.3
2012/02/07 04:50,    0.3,   -0.4,  999.0,  999.0,    3.6,    5.8,    9.4,   10.9,   11.7,   12.0,   12.5,   13.4,   14.1,   14.9,   14.6,  999.0,  999.0,  999.0,  999.0,   21.8,  999.0,  999.0,  999.0,   24.2,   24.0,   24.8,   25.1,   25.5,   26.2,   26.5,   26.8,   27.0,   27.1,   27.2,   27.2,   27.2,   26.5,   27.1,   26.9,   26.7,   26.3,   26.3,   26.3,   26.3,   26.3,   26.3,   26.2,   26.2,   26.2,   26.3,   26.3,   26.2,   26.3,   26.2,   26.2,   26.3,   26.3,   26.3,   26.2,   26.3,   26.2,   26.2,   26.2,   26.3,   26.2,   26.2,   26.2,   26.2,   24.0,   24.0,   22.9,   22.9,   22.9,   22.9,   23.0,   23.0,   22.9,   22.9,   22.9,   23.0
2012/02/07 05:00,   -0.5,   -0.5,    2.0,    1.5,    3.0,  999.0,    7.2,   10.0,   10.7,   12.0,   11.6,    0.6,   -5.9,   -4.9,   -3.7,  999.0,  999.0,  999.0,  999.0,  999.0,  999.0,  999.0,   25.0,   24.5,   24.5,   25.1,   25.3,   25.1,   25.4,   25.5,   26.3,   25.6,   26.1,   26.2,   26.4,   26.4,   26.7,   26.7,   26.8,   26.8,   26.8,   26.8,   26.5,   26.6,   26.4,   26.3,   26.3,   26.3,   26.3,   26.3,   26.2,   26.2,   26.3,   26.2,   26.2,   26.2,   26.2,   26.1,   26.2,   26.3,   26.2,   26.2,   26.3,   26.3,   26.2,   26.2,   26.3,   26.2,   26.3,   26.3,   26.3,   26.2,   26.2,   26.1,   26.2,   26.2,   26.2,   26.2,   26.2,   26.2
2012/02/07 05:10,    0.0,   -0.1,  999.0,  999.0,  999.0,  999.0,  999.0,  999.0,  999.0,  -25.8,  -25.3,  -23.3,  -22.2,  -21.4,  -19.6,  -19.5,  999.0,  999.0,  999.0,  999.0,  999.0,   24.8,   25.7,   25.4,   25.7,   25.2,   25.6,   26.0,   25.5,   25.8,   26.1,   26.9,   26.2,   26.7,   26.1,   26.4,   26.1,   26.2,   26.1,   26.2,   26.0,   26.3,   26.3,   26.2,   26.3,   26.2,   26.2,   26.2,   26.3,   26.3,   26.3,   26.2,   26.2,   26.1,   26.1,   26.1,   26.3,   26.2,   26.3,   26.2,   26.2,   26.1,   26.2,   26.2,   26.1,   26.1,   26.2,   26.2,   26.2,   26.3,   26.1,   21.8,   20.4,   21.9,   20.3,   20.3,   21.7,   21.7,   21.8,   20.4
2012/02/07 05:20,  999.0,  999.0,  999.0,  999.0,  999.0,  999.0,  999.0,  999.0,  999.0,  -13.5,  -12.5,  -25.3,  -22.8,  -21.0,  999.0,  999.0,  999.0,  999.0,  999.0,  999.0,  999.0,  999.0,   27.7,   27.9,   28.5,   28.4,   28.6,   27.5,   29.4,  999.0,   30.2,   30.3,   31.6,  999.0,  999.0,  999.0,   30.6,  999.0,  999.0,  999.0,  999.0,  999.0,  999.0,   26.3,   26.3,   26.2,   26.3,   26.3,   26.3,   26.3,   26.3,   26.2,   26.2,   26.3,   26.3,   26.3,   26.3,   26.3,   26.4,   26.3,   26.2,   26.3,   26.3,   26.3,   26.3,   26.3,   26.3,   26.2,   26.3,   26.3,   26.3,   26.2,   26.2,   26.2,   26.3,   26.3,   26.3,   26.3,   26.3,   26.3
2012/02/07 05:30,    0.9,  999.0,  999.0,  999.0,  999.0,  999.0,    7.4,    9.6,   12.1,  999.0,  999.0,  999.0,  999.0,  999.0,  -18.7,  -19.2,  -18.4,  -18.1,  -17.7,  999.0,  999.0,  999.0,  999.0,  999.0,   26.9,   25.0,   25.3,   25.3,   25.1,   25.0,   24.8,  999.0,  999.0,  999.0,  999.0,  999.0,  999.0,  999.0,  999.0,  999.0,   26.3,   26.2,   26.3,   26.2,   26.3,   25.4,   24.7,   24.7,   24.8,   24.8,   24.7,   24.7,   26.3,   26.3,   26.2,   26.3,   26.2,   26.2,   26.3,   26.3,   26.2,   26.3,   26.3,   26.3,   26.3,   26.3,   26.3,   26.3,   26.3,   26.3,   26.3,   26.2,   26.3,   26.2,   26.3,   25.4,   25.1,   24.7,   24.8,   24.8
2012/02/07 05:40,    2.9,  999.0,    2.1,  999.0,  999.0,    5.8,    7.4,    8.8,   10.0,   12.4,   13.4,  999.0,  999.0,  -24.0,  -20.7,  -20.4,  -19.1,  -19.5,  -19.4,  999.0,  999.0,  999.0,  999.0,   29.5,  999.0,   23.2,   23.1,   24.3,   25.2,   26.0,   26.5,   26.6,   26.1,   25.6,   25.3,   25.1,   25.2,   23.0,   23.5,   22.5,   22.6,   22.4,   22.3,   20.5,   20.5,   20.5,   20.6,   19.1,   19.1,   19.3,   15.3,   14.9,   14.4,   12.1,    9.5,    9.4,   10.8,    9.5,   12.2,   13.0,   13.1,   13.8,   13.7,   13.8,   13.8,   13.1,   13.8,   13.9,   13.8,   13.8,   13.8,   13.8,   13.8,   13.8,   13.8,   13.8,   13.8,   13.8,   13.8,   13.1
2012/02/07 05:50,    5.1,    5.6,  999.0,  999.0,  999.0,  999.0,    7.5,    9.3,   10.5,   12.0,   13.3,   15.1,   16.3,  -16.7,  -21.7,  -20.2,  -18.7,  -18.0,  999.0,  999.0,  999.0,  999.0,   29.4,   26.8,   27.6,   27.5,   27.3,   26.9,   27.2,   27.7,   28.2,   28.2,   27.8,   28.0,   28.1,   27.7,   27.6,   27.2,   26.9,   24.9,   22.2,   18.5,   18.5,   18.3,   18.2,   18.3,   18.2,   18.1,   18.0,   18.0,   12.8,    8.7,    1.6,   -1.8,    4.4,    4.4,    4.3,   -2.8,   -3.7,   -6.3,   -3.6,   -6.3,   -3.7,   -3.6,   -6.3,   -6.3,   -6.3,   -6.3,   -6.4,   -6.3,   -6.3,   -9.0,   -9.0,   -5.3,   -2.7,   -5.3,   -6.3,   -8.9,   -6.3,   -8.9
2012/02/07 06:00,    5.4,    6.1,    6.0,  999.0,    6.7,    7.2,  999.0,    9.3,   10.4,   11.7,   12.3,   10.7,  999.0,   13.1,  999.0,  999.0,  999.0,  999.0,  999.0,  999.0,  999.0,  999.0,   22.3,   26.3,   26.3,   27.0,   27.0,   27.6,   28.2,   29.3,   29.6,   29.8,   29.3,   29.4,   29.4,   29.5,   27.7,   28.0,   27.7,   25.7,   18.0,   19.2,   18.1,   14.0,   17.9,   19.0,   17.7,   10.4,    5.3,    1.3,   -4.5,    6.2,   -1.6,   -3.1,   -2.9,   -3.0,   -3.0,   -3.0,    3.8,   -4.4,   -6.5,    3.9,    3.9,    4.3,    1.4,    0.5,   -4.4,   -4.5,    0.5,   -4.4,   -3.3,    0.6,    0.5,    4.3,   -6.6,    3.5,   -6.6,   -6.6,    1.2,   -4.4
2012/02/07 06:10,    5.4,    5.4,    5.4,  999.0,  999.0,    8.0,    9.5,    4.3,    2.7,  999.0,  999.0,  999.0,  999.0,  999.0,  999.0,  999.0,  999.0,  999.0,  999.0,  999.0,  999.0,  999.0,  999.0,   28.0,   28.4,   28.4,   28.8,   29.5,   30.1,   30.4,   30.4,   30.2,   30.3,   29.8,   29.7,   30.0,   29.7,   29.5,   29.7,   29.9,   29.7,   29.3,   28.9,   28.7,   29.5,   28.1,  999.0,  999.0,  999.0,  999.0,   28.0,   28.6,  999.0,  999.0,  999.0,  999.0,  999.0,  999.0,   28.3,   28.4,  999.0,  999.0,   29.9,  999.0,  999.0,  999.0,  999.0,  999.0,  999.0,  999.0,  999.0,  999.0,  999.0,  999.0,  999.0,  999.0,  999.0,  999.0,  999.0,  999.0
2012/02/07 06:20,    7.0,    8.5,  999.0,    8.5,  999.0,  999.0,  999.0,  999.0,  999.0,  999.0,  999.0,  999.0,   12.6,  999.0,    9.0,    8.9,   11.8,    8.9,  999.0,  999.0,  999.0,   22.3,   20.9,   22.3,   21.9,   24.2,   22.0,   21.4,   20.9,   19.4,   20.2,   19.9,   23.3,   22.0,   21.9,   26.2,   26.3,   26.3,   26.3,   26.3,   26.3,   26.3,   26.3,   23.4,   23.3,   23.4,   15.3,   15.3,   15.3,   15.3,    4.4,    4.4,   15.3,    4.3,   20.4,   23.4,  999.0,   20.4,   23.3,  999.0,   15.3,   15.3,   15.3,   15.3,   15.2,   15.2,   15.3,   15.3,   15.3,   17.5,   15.3,   17.4,   17.5,   17.5,   19.6,   15.3,   15.3,   15.3,   15.3,   15.3
2012/02/07 06:30,  999.0,  999.0,   -0.1,    0.0,   -0.1,   -0.0,    0.0,   -0.1,   -0.2,   -0.2,   -0.1,    0.0,    0.0,    0.2,   -0.1,   -0.0,   -0.1,   -0.0,   -0.1,   -0.0,    4.4,    6.5,   11.5,    4.2,   11.6,    2.8,    6.5,    6.5,    6.5,    5.7,    5.7,   -0.2,   -0.1,   -0.1,   -0.1,   15.4,    7.0,    7.0,    5.2,    6.9,    7.0,    7.0,    5.2,   -0.1,   -0.1,   -3.6,   -2.3,   -1.9,   -1.9,    4.3,    4.3,   -0.0,    2.0,   -3.1,   -0.2,   -1.9,   -0.1,   -1.8,   -1.8,   -7.2,   -9.0,   -9.0,   -9.0,   -8.9,   -8.9,   -5.4,   -5.4,   -5.4,   -7.2,   -7.2,   -7.2,   -1.8,   -3.6,   -3.6,   -3.6,   -3.7,   -3.6,   -3.6,   -3.7,   -3.6
2012/02/07 06:40,   -0.6,  999.0,   -0.1,   -0.1,    0.1,  999.0,   -0.1,   -0.1,   -0.3,   -0.2,   -0.1,   -0.2,    0.0,   -0.1,   -0.0,   -0.2,   -0.2,   -0.2,   -0.2,   -0.2,    4.3,    4.3,    4.2,    2.0,    4.4,    4.2,    4.2,    4.3,    4.4,   -0.2,   -0.1,   -0.1,   -0.1,   -0.2,   -0.1,    4.2,    4.2,    2.0,    2.1,    2.7,    2.0,    4.3,    5.9,    5.9,    5.9,    5.8,    4.3,    5.7,    5.9,    5.8,    8.8,    2.8,    8.6,   -0.1,    3.0,    2.9,    2.9,    2.9,   -0.1,   -3.1,   -6.2,   -3.1,   -4.5,   -4.5,   -3.1,   -0.1,   -0.1,   -0.1,   -0.1,   -0.2,   -0.1,   -0.2,   -0.1,   -0.1,   -0.1,   -0.2,    2.9,    2.8,    2.9,    2.8
2012/02/07 06:50,  999.0,  999.0,   -0.1,    0.0,   -0.0,   -0.0,   -0.1,   -0.1,   -0.1,   -0.1,   -0.1,   -0.1,   -0.2,   -0.1,   -0.1,   -0.1,   -0.1,   -0.1,   -0.1,   -0.1,   -0.1,   -0.1,   -0.1,   -0.1,   -0.1,   -0.1,   -0.1,   -0.0,   -0.1,   -0.1,   -0.1,   -0.1,   -0.1,   -0.1,   -0.1,   -0.1,   -0.1,   -0.1,   -0.1,   -0.1,   -0.1,   -0.1,   -0.2,   -0.1,   -0.1,   -0.1,   -0.1,   -0.1,   -0.1,   -0.1,   -0.2,   -0.1,   -0.1,   -1.9,   -1.9,   -1.9,   -1.9,   -1.8,   -0.2,   -0.1,   -0.1,   -0.1,   -0.1,   -0.1,   -0.1,   -0.1,   -0.1,   -0.1,   -0.1,   -0.1,   -0.1,   -0.1,   -0.2,   -0.1,   -0.1,   -0.1,   -0.1,   -0.1,   -0.1,   -0.1
2012/02/07 07:00,    0.0,   -0.0,   -3.4,   -3.5,   -3.5,   -0.1,   -3.6,   -5.4,   -7.2,   -5.4,   -5.3,   -5.4,   -5.4,   -5.4,   -5.4,   -0.1,   -0.1,   -0.1,   -0.2,   -0.2,   -0.2,   -0.1,   -0.1,   -0.1,   -0.2,   -0.1,   -0.2,   -0.1,   -0.1,   -0.1,   -0.1,   -0.2,   -0.1,   -0.2,   -0.2,   -0.1,   -0.1,   -0.1,   -0.1,   -0.1,   -0.2,   -0.1,   -0.1,   -0.1,   -0.1,   -0.1,   -0.1,   -0.1,   -0.2,   -0.2,   -0.2,   -0.1,   -0.1,   -0.1,   -0.1,   -0.1,   -0.2,   -0.1,   -0.1,   -0.1,   -0.0,   -0.2,   -0.1,   -0.2,   -0.2,   -0.1,   -0.1,   -0.1,   -0.1,   -0.1,   -0.2,   -0.1,   -0.1,   -0.1,   -0.1,   -0.1,   -0.1,   -0.1,   -0.2,   -0.2
2012/02/07 07:10,    0.0,   -0.0,   -5.8,   -7.1,   -3.5,   -5.3,   -5.3,   -7.0,   -7.1,   -7.0,   -7.1,   -7.1,   -5.3,   -7.1,   -7.1,   -5.4,   -5.4,   -5.3,   -5.4,   -5.4,   -7.1,   -7.1,   -7.2,   -7.1,   -5.4,   -5.4,   -5.4,   -5.4,   -5.4,   -7.1,   -7.1,   -5.3,   -6.7,   -5.4,   -5.4,   -5.4,   -5.4,   -7.1,   -5.3,   -5.3,   -5.3,   -5.3,   -5.4,   -7.1,   -7.1,   -7.1,   -5.4,   -5.3,   -5.4,   -5.4,   -5.4,   -7.1,   -7.2,   -7.1,   -5.4,   -5.4,   -5.4,   -5.4,   -5.5,   -7.1,   -7.1,   -5.3,   -6.7,   -5.4,   -5.4,   -5.4,   -5.4,   -7.1,   -5.3,   -5.3,   -5.3,   -5.4,   -5.3,   -7.1,   -7.1,   -7.1,   -5.4,   -5.3,   -5.4,   -5.4
2012/02/07 07:20,   -0.1,   -6.9,    0.0,   -5.7,   -8.9,   -5.7,   -5.2,   -6.7,   -5.5,   -6.7,   -5.3,   -5.4,   -5.4,   -5.4,   -5.4,   -6.7,   -6.6,   -5.3,   -5.3,   -6.7,   -5.4,   -5.4,   -5.4,   -5.3,   -5.3,   -5.3,   -5.3,   -5.4,   -5.4,   -7.1,   -5.4,   -5.4,   -5.3,   -5.4,   -5.3,   -5.4,   -5.4,   -5.4,   -5.3,   -5.4,   -5.3,   -5.4,   -5.4,   -5.4,   -5.4,   -5.4,   -5.4,   -5.3,   -5.3,   -5.4,   -5.4,   -5.4,   -5.4,   -5.3,   -5.3,   -5.3,   -5.3,   -5.4,   -5.4,   -7.1,   -5.4,   -5.4,   -5.3,   -5.4,   -5.3,   -5.4,   -5.4,   -5.4,   -5.3,   -5.3,   -5.3,   -5.3,   -5.4,   -5.4,   -5.4,   -5.4,   -5.4,   -5.3,   -5.3,   -5.4
2012/02/07 07:30,   -0.1,  999.0,   -0.2,   -0.0,   -0.2,   -0.1,   -0.2,   -0.1,   -0.2,   -0.1,   -0.1,   -0.2,   -0.2,   -0.1,   -0.1,   -0.1,   -0.1,   -0.1,   -0.1,   -0.2,   -0.2,   -0.1,   -0.1,   -0.1,   -0.1,   -0.1,   -0.2,   -0.2,   -0.1,   -0.2,   -0.1,   -0.1,   -0.2,   -0.1,   -0.2,   -0.1,   -0.2,   -0.2,   -0.1,   -0.1,   -0.2,   -0.2,   -0.2,   -0.2,   -0.2,   -0.1,   -0.1,   -0.1,   -0.2,   -0.2,   -0.2,   -0.1,   -0.1,   -0.2,   -0.1,   -0.2,   -0.2,   -0.2,   -0.1,   -0.2,   -0.1,   -0.1,   -0.2,   -0.2,   -0.2,   -0.2,   -0.2,   -0.2,   -0.1,   -0.1,   -0.2,   -0.2,   -0.2,   -0.2,   -0.2,   -0.1,   -0.1,   -0.1,   -0.1,   -0.2
2012/02/07 07:40,    0.2,  999.0,    3.8,    5.6,   -0.1,   -0.1,   -0.2,    4.3,    2.0,    3.2,    3.5,    4.6,    5.2,    5.6,    5.6,    3.2,    5.0,    4.9,    3.5,  999.0,   -0.1,    8.6,    9.8,    8.1,   13.1,   13.3,   13.5,   14.7,   10.5,   10.9,   10.9,   10.8,   12.1,   12.1,   12.1,   12.1,   12.1,   12.1,   13.0,   15.6,   13.0,   13.0,   13.0,   13.0,   13.0,   13.0,   13.0,   13.0,   13.0,   10.9,   12.1,   12.2,   12.1,   12.1,   12.1,   12.1,   13.0,   10.9,   10.9,   12.2,   12.2,   13.0,   12.9,   13.0,   13.0,   13.0,   13.0,   13.0,   13.0,   13.0,   13.0,   13.0,   13.0,   13.0,   13.0,   13.0,   13.0,   13.0,   13.0,   13.0
2012/02/07 07:50,    5.3,    5.7,  999.0,  999.0,  999.0,  999.0,    3.5,  999.0,    2.9,    3.9,    4.8,   13.1,    9.9,    8.3,    5.6,    3.9,    4.1,    8.6,    9.5,  999.0,  999.0,  999.0,   17.5,   18.5,   17.4,   20.6,   20.8,   20.9,   21.0,   19.7,   17.4,   17.3,   17.4,   17.4,   17.4,   17.5,   17.4,   21.0,   21.0,   21.0,   20.9,   22.8,   22.7,   21.0,   22.7,   22.7,   22.7,   24.5,   22.7,   22.7,   22.7,   21.0,   21.0,   20.9,   20.9,   20.9,   19.6,   19.2,   19.2,   19.2,   19.2,   21.0,   21.0,   19.2,   19.2,   22.7,   19.1,   21.0,   21.0,   19.2,   17.4,   19.2,   19.2,   19.2,   17.4,   17.4,   21.8,   19.2,   19.2,   24.1
2012/02/07 08:00,    4.6,  999.0,    2.5,  999.0,  999.0,    2.7,    2.8,   -0.0,  999.0,   -0.1,    2.0,   -2.4,   -0.2,   -1.8,   -1.8,   -1.8,   -1.8,    0.1,    2.3,   -0.3,   -2.4,   -2.3,    1.6,   -2.2,   -0.1,   -0.2,   -0.2,   -0.2,   -0.2,   -0.1,   -0.1,   -0.0,   -0.1,   -0.2,   -0.2,   -0.2,   -0.1,   -0.0,   -0.0,    5.2,    6.5,    6.5,    8.6,    8.7,    6.4,    3.5,    5.2,    3.4,    3.3,    3.3,    3.3,   -2.3,   -2.3,   -2.3,   -2.3,   -0.2,   -0.2,   -0.2,   -2.3,   -2.3,   -0.1,   -0.1,   -0.1,   -2.3,   -2.3,   -3.1,   -2.3,   -2.2,   -2.3,   -0.2,   -0.2,   -0.2,   -0.3,   -0.1,   -0.1,   -2.2,   -2.3,   -2.2,   -2.4,   -2.4
2012/02/07 08:10,   -0.1,   -0.3,    0.0,  999.0,   -0.1,   -3.1,   -2.0,   -1.9,   -1.8,   -0.0,   -0.1,   -0.1,   -3.6,   -3.6,   -3.6,   -1.8,   -0.1,   -0.1,   -0.1,   -0.2,   -1.9,   -0.7,   -3.7,   -3.7,   -3.7,   -3.7,   -3.7,   -3.7,   -3.6,   -3.6,   -5.4,   -0.1,   -0.2,   -0.2,   -0.2,   -0.1,   -0.2,   -6.7,   -6.8,   -6.7,   -6.7,   -0.1,   -0.2,   -0.2,   -7.2,   -8.9,  -12.4,  -12.4,  -12.4,  -14.2,  -14.1,  -14.1,  -14.1,  -14.2,  -14.2,  -14.2,  -14.2,  -14.2,  -14.1,  -14.1,  -14.2,  -14.1,  -16.0,  -15.9,  -16.0,  -16.0,  -15.9,  -15.9,  -14.2,  -14.1,  -14.2,  -17.7,  -17.7,  -17.7,  -17.7,  -17.7,  -17.7,  -17.7,  -17.7,  -17.7
2012/02/07 08:20,  999.0,   -5.7,  999.0,   -6.0,   -4.4,   -0.1,    0.0,   -4.5,   -4.5,   -0.1,   -4.5,   -0.1,   -0.0,   -0.0,    0.0,    0.0,   -0.1,   -0.1,   -0.1,    0.0,    0.1,    0.1,   -5.7,   -5.9,   -5.9,   -5.9,   -5.8,   -5.8,   -8.8,   -8.8,   -8.8,   -0.0,    0.1,    0.0,  999.0,    0.1,   -5.8,   -8.9,   -4.4,   -8.9,   -8.8,   -5.9,    0.0,    0.0,   -5.8,   -8.8,   -8.8,   -8.9,   -8.8,   -8.8,   -8.8,   -8.8,   -8.7,   -8.9,   -8.9,   -8.8,   -8.8,   -8.8,   -8.8,   -8.7,   -8.8,   -8.9,   -8.8,  -11.7,  -11.8,   -8.7,   -8.8,   -8.8,   -8.8,   -8.8,   -8.8,   -8.9,   -8.8,   -8.9,   -8.8,   -8.8,   -8.9,   -8.9,   -9.0,   -8.8
2012/02/07 08:30,   13.2,  999.0,   19.7,  999.0,   17.7,    8.8,    7.1,    5.4,    8.7,    9.7,    9.7,    9.7,    9.6,    9.7,    9.6,   12.2,    9.6,    9.7,    9.7,    9.7,    9.7,    8.7,    8.8,    8.7,    8.8,    7.1,    8.8,    8.7,    8.7,    8.7,    8.7,    8.7,    8.7,    8.8,    8.7,    8.7,    6.9,    8.7,    8.7,    7.8,    8.7,   10.9,   12.0,    9.7,    9.7,    9.6,    9.7,    9.6,    9.7,    9.6,    9.7,    9.6,    9.6,   12.3,    9.6,    9.7,    9.7,    9.6,    9.6,    9.6,    9.6,    9.6,    9.6,    9.6,    9.6,    9.6,    7.8,    7.9,    9.6,    9.6,    7.9,   12.0,   11.9,   12.0,    9.7,    7.9,    7.9,    9.6,   12.0,   12.0
2012/02/07 08:40,   -0.1,  999.0,    4.3,    8.6,    8.7,    2.5,   -0.0,   -0.0,   -0.1,    2.5,    2.6,    2.5,    2.5,    2.5,    2.5,    2.5,    2.5,    2.6,    2.6,    5.1,    1.6,    3.3,    3.3,    3.3,    4.2,    3.4,    3.4,    3.4,    1.6,    1.5,    5.2,    5.1,    5.1,    5.2,    5.1,    5.1,    5.2,    8.6,    3.5,    5.2,    3.4,    5.1,    3.4,    3.3,    1.6,    1.6,    1.5,    1.6,    1.6,    3.3,    1.6,    1.5,    1.6,    1.6,    5.4,    7.0,    6.9,    6.9,    6.9,    6.9,    6.9,    6.9,    6.9,    6.9,    6.9,    4.2,    4.2,    6.9,    6.9,    6.9,    6.9,    8.6,    6.9,    9.5,    5.2,    7.9,    6.8,    6.9,    6.9,    8.6
2012/02/07 08:50,   -0.1,    0.0,    0.2,    0.0,   -0.0,   -0.1,   -0.0,   -0.2,   -0.2,   -0.1,   -0.1,   -0.1,   -0.1,   -0.2,   -0.1,   -0.2,   -0.1,   -0.1,   -0.2,   -0.2,   -0.2,   -0.1,   -0.1,   -0.2,   -0.2,   -0.1,   -0.2,   -0.1,   -0.1,   -0.1,   -0.1,   -0.1,   -0.1,   -0.1,   -0.1,   -0.1,   -0.1,   -0.2,   -0.2,   -0.1,   -0.1,   -0.1,   -0.1,   -0.1,   -0.2,   -0.2,   -0.1,   -0.2,   -0.2,   -0.1,   -0.1,   -0.1,   -0.1,   -0.2,   -0.2,   -0.1,   -0.2,   -0.1,   -0.1,   -0.1,   -0.1,   -0.1,   -0.1,   -0.1,   -0.1,   -0.1,   -0.1,   -0.1,   -0.2,   -0.1,   -0.1,   -0.1,   -0.1,   -0.1,   -0.2,   -0.2,   -0.1,   -0.1,   -0.2,   -0.1
2012/02/07 09:00,  999.0,  999.0,  999.0,   -0.1,   -0.2,   -0.1,   -0.0,   -0.1,   -0.1,   -0.2,   -0.1,   -0.1,   -0.1,   -0.0,   -0.1,   -0.1,   -0.1,   -0.1,   -0.1,   -0.2,   -0.1,   -0.1,   -0.1,   -0.1,   -0.0,   -0.1,   -0.2,   -0.2,   -0.1,   -0.1,   -0.2,   -0.1,   -0.1,   -0.1,   -0.2,   -0.1,   -0.2,   -0.1,   -0.1,   -0.1,   -0.1,   -0.1,   -0.1,   -0.0,   -0.1,   -0.1,   -0.0,   -0.2,   -0.2,   -0.2,   -0.1,   -0.1,   -0.1,   -0.1,   -0.0,   -0.2,   -0.2,   -0.2,   -0.2,   -0.1,   -0.1,   -0.1,   -0.1,   -0.2,   -0.2,   -0.1,   -0.1,   -0.1,   -0.1,   -0.1,   -0.1,   -0.1,   -0.1,   -0.1,   -0.1,   -0.1,   -0.1,   -0.2,   -0.2,   -0.1
2012/02/07 09:10,   -0.1,   -0.2,   -0.2,   -0.1,    0.0,   -0.2,   -0.2,   -0.2,   -0.2,   -0.1,   -0.1,   -0.0,   -0.1,   -0.1,   -0.1,   -0.2,   -0.1,   -0.1,   -0.1,   -0.1,   -0.1,   -0.2,   -0.2,   -0.2,   -0.2,   -0.2,   -0.1,   -0.1,    1.6,    1.6,    1.6,    1.7,    1.6,    1.6,    1.6,    1.6,    1.6,    1.6,    1.6,    1.6,   -0.2,   -0.1,   -0.2,   -0.2,    1.7,    2.1,   -0.2,   -0.1,   -0.1,    5.2,    5.1,    5.1,    5.1,    5.1,    5.1,    6.9,    6.9,    5.2,    5.0,    5.1,    5.1,    5.2,    5.1,    5.1,    5.2,    5.1,    5.1,    5.1,    5.2,    5.1,    5.1,    5.2,    3.4,    5.1,    6.9,    3.3,    3.4,    5.2,    3.4,    5.2
2012/02/07 09:20,    0.1,   -0.2,    0.0,    3.4,    3.3,    2.2,    1.7,    0.0,    0.1,   -0.0,    0.0,   -0.1,   -0.2,   -0.0,   -0.0,   -0.0,    1.7,    1.7,    1.7,    1.6,   -0.1,   -0.1,   -0.1,   -0.1,   -0.0,    1.6,    1.6,    1.7,    1.6,    1.7,    1.7,   -0.0,   -0.0,   -0.1,   -0.1,   -0.1,   -0.0,   -0.0,    0.0,   -0.0,   -0.0,   -0.0,   -0.1,   -0.1,   -0.0,    3.4,    1.7,    1.7,    1.7,    3.4,    1.6,    1.7,    3.3,    1.7,    1.7,    1.6,    1.6,    3.4,    1.6,    1.7,    3.4,    1.7,    1.7,    1.7,    1.6,    1.7,    1.7,    1.7,    1.7,    1.7,    1.7,    1.7,    3.4,    1.6,    3.4,    3.4,    1.7,    1.7,    1.7,    1.6
2012/02/07 09:30,  999.0,    2.9,    8.9,    7.1,    6.9,    2.2,    2.1,   -0.0,    3.4,    3.5,    3.5,    4.3,    3.4,    3.4,    3.5,    3.4,    5.2,    5.2,    5.2,    5.1,    3.4,    5.2,    5.1,    5.1,    5.2,    6.9,    6.9,    5.1,    5.1,    6.8,    8.6,    5.2,    5.2,    5.2,    3.3,    3.4,    3.4,    3.4,    6.9,    5.2,    5.2,    5.2,    5.2,    3.4,    3.4,    6.4,    5.1,    5.1,    5.1,    2.0,    2.1,    5.1,    5.1,    6.9,    6.9,    6.9,    7.0,    6.9,    6.8,    5.0,    3.3,    5.0,    5.1,    5.1,    5.1,    5.1,    5.1,    5.1,    5.1,    5.1,    5.2,    2.0,    2.0,    2.0,    2.1,    2.8,    2.1,    2.1,    2.0,    2.0
2012/02/07 09:40,   -0.1,   -0.0,   -0.1,   -0.0,   -0.1,    0.0,   -0.1,   -0.1,   -0.0,   -0.1,   -0.1,   -0.1,   -0.1,   -0.1,   -0.1,   -0.1,   -0.1,   -0.1,   -0.2,   -0.0,   -0.1,   -0.2,   -0.1,   -0.1,   -0.2,   -0.1,   -0.1,   -0.1,   -0.1,   -0.1,   -0.1,   -0.1,   -0.1,   -0.2,   -0.0,   -0.1,   -0.1,   -0.1,   -0.1,   -0.1,   -0.0,   -0.1,   -0.1,   -0.1,   -0.1,   -0.1,   -0.1,   -0.1,   -0.1,   -0.1,   -0.1,   -0.2,   -0.1,   -0.1,   -0.1,   -0.1,   -0.1,   -0.1,   -0.1,   -0.1,   -0.1,   -0.1,   -0.1,   -0.2,   -0.1,   -0.1,   -0.1,   -0.1,   -0.1,   -0.1,   -0.1,   -0.1,   -0.1,   -0.1,   -0.1,   -0.1,   -0.1,   -0.1,   -0.2,   -0.1
2012/02/07 09:50,   -0.1,    0.1,  999.0,   -0.0,   -0.0,   -0.1,   -0.0,   -0.1,   -0.1,   -0.2,   -0.1,   -0.1,   -0.2,   -0.1,   -0.1,   -0.0,   -0.1,   -0.1,   -0.2,   -0.1,   -0.1,   -0.1,   -0.1,   -0.0,   -0.1,   -0.1,   -0.2,   -0.2,   -0.1,   -0.2,   -0.1,   -0.2,   -0.1,   -0.2,   -0.2,   -0.2,   -0.1,   -0.1,   -0.1,   -0.2,   -0.2,   -0.1,   -0.2,   -0.1,   -0.1,   -0.0,   -0.1,   -0.2,   -0.2,   -0.1,   -0.1,   -0.1,   -0.1,   -0.0,   -0.1,   -0.1,   -0.2,   -0.2,   -0.1,   -0.2,   -0.1,   -0.1,   -0.1,   -0.2,   -0.2,   -0.2,   -0.1,   -0.1,   -0.1,   -0.2,   -0.2,   -0.1,   -0.2,   -0.1,   -0.1,   -0.0,   -0.1,   -0.2,   -0.2,   -0.1
2012/02/07 10:00,    0.1,    0.1,    0.1,    0.3,   -0.1,   -0.1,   -0.1,   -0.2,   -0.2,   -0.1,   -0.2,   -0.1,   -0.2,   -0.2,   -0.2,   -0.2,   -0.1,   -0.1,   -0.1,   -0.1,   -0.2,   -0.2,   -0.2,   -0.2,   -0.2,   -0.2,   -0.2,   -0.2,   -0.2,   -0.2,   -0.1,   -0.1,   -0.1,   -0.1,   -0.2,   -0.2,   -0.1,   -0.2,   -0.1,   -0.1,   -0.1,   -0.1,   -0.1,   -0.1,   -0.1,   -0.2,   -0.1,   -0.1,   -0.1,   -0.1,   -0.2,   -0.2,   -0.2,   -0.2,   -0.2,   -0.2,   -0.2,   -0.2,   -0.2,   -0.2,   -0.1,   -0.2,   -0.1,   -0.1,   -0.1,   -0.2,   -0.2,   -0.1,   -0.1,   -0.1,   -0.1,   -0.1,   -0.1,   -0.1,   -0.1,   -0.2,   -0.1,   -0.1,   -0.1,   -0.1
2012/02/07 10:10,   -0.0,   -0.0,    0.0,   -0.2,   -0.1,   -0.2,   -0.3,   -0.2,   -0.0,   -0.1,   -0.1,   -0.1,   -0.1,   -0.1,   -0.2,   -0.2,   -0.1,   -0.1,   -0.2,   -0.1,   -0.1,   -0.2,   -0.2,   -0.1,   -0.2,   -0.0,   -0.1,   -0.2,   -0.2,   -0.2,   -0.2,   -0.1,   -0.1,   -0.1,   -0.2,   -0.2,   -0.2,   -0.2,   -0.2,   -0.1,   -0.1,   -0.1,   -0.1,   -0.2,   -0.2,   -0.2,   -0.2,   -0.1,   -0.2,   -0.1,   -0.1,   -0.2,   -0.2,   -0.1,   -0.2,   -0.0,   -0.1,   -0.2,   -0.1,   -0.2,   -0.2,   -0.1,   -0.1,   -0.1,   -0.2,   -0.2,   -0.2,   -0.2,   -0.2,   -0.1,   -0.1,   -0.1,   -0.1,   -0.2,   -0.2,   -0.1,   -0.2,   -0.2,   -0.2,   -0.1
2012/02/07 10:20,    0.0,    0.2,    0.1,    0.0,   -0.2,   -0.1,   -0.1,   -0.0,   -0.1,   -0.1,   -0.1,   -0.1,   -0.2,   -0.1,   -0.2,   -0.1,   -0.1,   -0.1,   -0.1,   -0.1,   -0.1,    1.7,    1.6,    1.7,    1.7,    1.7,    1.7,    1.7,    1.6,    1.7,    1.7,    1.7,    1.7,    1.7,    3.4,    1.6,    1.6,    1.7,    1.7,    1.7,    1.6,    1.6,   -0.1,   -0.1,   -0.1,    1.6,    1.6,    1.7,    1.7,    1.7,    1.6,    1.7,    1.6,    1.7,    1.7,    1.7,    1.7,    1.7,    1.6,    1.7,    1.7,    1.7,    1.7,    1.7,    3.4,    1.6,    1.6,    1.7,    1.7,    1.7,    1.6,    1.6,    1.6,   -0.1,   -0.1,    1.6,    1.7,    1.7,    1.7,    1.7
2012/02/07 10:30,    0.1,   -0.0,   -0.1,    0.0,    0.0,    0.0,   -0.1,   -0.0,   -0.1,   -0.1,   -0.1,   -0.0,   -0.0,   -0.0,   -0.0,   -0.1,   -0.1,   -0.1,   -0.1,   -0.1,   -0.1,   -0.1,   -0.1,   -0.1,   -0.1,   -0.0,   -0.1,   -0.1,   -0.2,   -0.1,   -0.1,   -0.2,   -0.1,   -0.2,   -0.1,   -0.1,   -0.2,   -0.1,   -0.1,   -0.2,   -0.2,   -0.1,   -0.1,   -0.1,   -0.1,   -0.1,   -0.1,   -0.1,   -0.1,   -0.1,   -0.1,   -0.1,   -0.1,   -0.1,   -0.1,   -0.1,   -0.1,   -0.1,   -0.2,   -0.1,   -0.1,   -0.2,   -0.1,   -0.2,   -0.1,   -0.1,   -0.2,   -0.1,   -0.1,   -0.2,   -0.2,   -0.1,   -0.1,   -0.1,   -0.1,   -0.1,   -0.1,   -0.1,   -0.1,   -0.1
2012/02/07 10:40,  999.0,    0.0,   -0.1,    0.1,   -0.1,    0.1,   -0.0,    0.1,    0.0,    0.0,   -0.1,    0.0,   -0.1,   -0.1,   -0.0,   -0.1,    0.0,   -0.0,   -0.1,   -0.1,   -0.1,   -0.2,   -0.2,   -0.1,   -0.1,   -0.2,   -0.1,   -0.1,   -0.1,   -0.2,   -0.1,   -0.1,   -0.1,   -0.1,   -0.1,   -0.1,   -0.2,   -0.1,   -0.1,   -0.1,   -0.1,   -0.1,   -0.1,   -0.1,   -0.0,   -0.0,   -0.0,   -0.0,   -0.1,   -0.1,   -0.1,   -0.2,   -0.2,   -0.1,   -0.0,   -0.1,   -0.1,   -0.0,   -0.1,   -0.2,   -0.1,   -0.1,   -0.1,   -0.1,   -0.1,   -0.1,   -0.2,   -0.1,   -0.1,   -0.1,   -0.1,   -0.1,   -0.1,   -0.2,   -0.1,   -0.1,   -0.1,   -0.0,   -0.1,   -0.1
2012/02/07 10:50,    0.1,   -0.0,  999.0,   -0.1,   -0.1,   -0.0,   -0.0,   -0.1,   -0.0,   -0.1,   -0.1,   -0.1,   -0.1,   -0.1,   -0.1,   -0.2,   -0.1,   -0.1,   -0.1,   -0.1,   -0.0,   -0.1,   -0.1,   -0.1,   -0.1,   -0.1,   -0.1,   -0.1,   -0.1,   -0.1,   -0.1,   -0.1,   -0.1,   -0.1,   -0.0,   -0.1,   -0.1,   -0.1,   -0.1,   -0.1,   -0.1,   -0.1,   -0.1,   -0.1,   -0.1,   -0.2,   -0.2,   -0.1,   -0.1,   -0.1,   -0.0,   -0.1,   -0.1,   -0.1,   -0.1,   -0.1,   -0.1,   -0.1,   -0.1,   -0.1,   -0.1,   -0.1,   -0.1,   -0.1,   -0.0,   -0.1,   -0.2,   -0.1,   -0.1,   -0.1,   -0.1,   -0.1,   -0.1,   -0.2,   -0.1,   -0.2,   -0.1,   -0.1,   -0.1,   -0.1
2012/02/07 11:00,    0.2,   -0.2,    0.1,   -0.1,   -0.1,   -0.1,   -0.0,    0.0,    0.1,   -0.1,   -0.1,   -0.1,   -0.0,   -0.0,   -0.1,   -0.1,   -0.0,    0.0,   -0.0,   -0.0,   -0.0,   -0.0,   -0.0,    0.0,   -0.0,   -0.1,   -0.0,   -0.0,   -0.1,   -0.1,   -0.1,   -0.1,   -0.1,   -0.0,   -0.1,   -0.1,   -0.0,   -0.1,   -0.1,   -0.2,   -0.1,   -0.1,   -0.1,   -0.1,   -0.2,   -0.1,   -0.1,   -0.0,   -0.1,   -0.0,   -0.0,   -0.1,   -0.1,    0.0,   -0.0,   -0.0,   -0.0,   -0.0,   -0.1,   -0.0,   -0.1,    0.0,   -0.1,   -0.0,   -0.1,   -0.0,    0.0,   -0.1,   -0.1,   -0.2,   -0.1,   -0.1,   -0.1,   -0.1,   -0.2,   -0.1,   -0.1,   -0.0,   -0.1,   -0.0
2012/02/07 11:10,   -0.0,   -0.0,   -0.0,   -0.0,   -0.1,    0.1,   -0.0,   -1.8,   -1.9,   -1.8,   -1.8,   -0.1,   -0.0,   -0.1,   -0.0,   -0.0,   -0.1,   -0.1,   -1.8,   -1.8,   -1.8,   -1.8,   -0.1,   -0.1,   -0.1,   -1.8,   -1.8,   -1.9,   -1.9,   -1.8,   -1.8,   -1.9,   -1.9,   -2.3,   -1.8,   -1.9,   -0.1,   -0.1,   -0.1,   -0.1,   -0.1,   -0.1,   -0.1,   -0.1,   -0.1,   -0.1,   -0.1,   -0.1,   -1.8,   -1.8,   -1.8,   -1.8,   -0.1,   -0.1,   -0.1,   -0.1,   -1.8,   -1.9,   -1.9,   -1.9,   -1.8,   -1.8,   -1.9,   -2.3,   -1.8,   -1.9,   -0.1,   -0.1,   -1.9,   -1.9,   -1.8,   -1.9,   -0.0,   -0.1,   -0.1,   -0.0,   -0.1,   -0.1,   -0.1,   -0.1
2012/02/07 11:20,    0.0,    0.1,    0.1,   -0.0,   -0.1,   -0.1,   -0.1,   -0.1,   -0.0,   -0.0,   -0.1,   -0.0,   -0.1,   -0.1,   -0.1,   -0.1,   -0.1,   -0.1,   -0.1,   -0.0,   -0.0,   -0.1,   -0.1,   -0.1,   -0.0,   -0.0,   -0.1,   -0.0,   -0.0,   -0.1,   -0.1,   -0.0,   -0.0,   -0.1,   -0.1,   -0.1,   -0.1,   -0.1,   -0.0,   -0.0,   -0.1,   -0.1,   -0.1,   -0.1,   -0.1,   -0.0,   -0.1,   -0.1,   -0.1,   -0.0,   -0.0,   -0.1,   -0.1,   -0.1,   -0.0,   -0.0,   -0.1,   -0.1,   -0.0,   -0.1,   -0.1,   -0.0,   -0.0,   -0.0,   -0.1,   -0.1,   -0.1,   -0.1,   -0.0,   -0.0,   -0.1,   -0.0,   -0.1,   -0.1,   -0.1,   -0.0,   -0.1,   -0.1,   -0.1,   -0.0
2012/02/07 11:30,    0.2,    0.1,    0.0,   -0.0,   -0.1,   -0.0,   -0.0,   -0.1,    0.1,    0.0,   -0.0,    0.0,   -0.1,   -0.1,   -0.1,   -0.1,   -0.0,   -0.0,   -0.0,   -0.0,   -0.1,   -0.1,   -0.1,   -0.0,   -0.0,   -0.1,   -0.1,   -0.1,   -0.1,   -0.1,   -0.1,   -0.0,   -0.0,   -0.1,   -0.1,   -0.1,   -0.1,   -0.1,   -0.0,    0.0,   -0.0,   -0.0,   -0.1,   -0.1,   -0.1,   -0.1,   -0.0,   -0.1,   -0.0,   -0.1,   -0.1,   -0.1,   -0.1,   -0.0,   -0.0,   -0.1,   -0.1,   -0.1,   -0.1,   -0.1,   -0.1,   -0.0,   -0.0,   -0.1,   -0.1,   -0.1,   -0.1,   -0.1,   -0.0,    0.0,   -0.0,   -0.0,   -0.1,   -0.1,   -0.1,   -0.1,   -0.0,   -0.1,   -0.0,   -0.0
2012/02/07 11:40,    0.1,    0.1,    0.0,    5.9,    0.1,    4.3,    3.4,    3.4,    3.4,    3.5,    3.4,    3.4,    3.4,    3.4,    3.4,    3.4,    3.4,    3.4,    3.4,    3.4,    3.4,    3.4,    3.4,    3.4,    3.4,    3.4,    3.4,    3.4,    3.4,    3.4,    3.4,    3.4,    3.4,    3.4,    3.4,    3.4,    3.4,    3.4,    3.4,    3.5,    3.4,    3.4,    3.4,    3.3,    3.3,    3.4,    3.4,    3.4,    3.4,    3.4,    3.4,    3.4,    3.4,    3.4,    3.4,    3.4,    3.4,    3.4,    3.4,    3.4,    3.4,    3.4,    3.4,    3.4,    3.4,    3.4,    3.4,    3.4,    3.4,    3.4,    3.4,    3.4,    3.4,    3.3,    3.4,    3.4,    3.4,    3.4,    3.4,    3.4
2012/02/07 11:50,    2.1,    6.8,    3.0,    3.0,    3.4,    2.2,    3.6,    3.5,    4.2,    3.4,    3.4,    3.5,    3.4,    3.5,    3.5,    3.5,    3.4,    3.5,    3.4,    3.4,    3.4,    3.4,    3.4,    4.4,    3.3,    3.4,    3.5,    5.2,    5.1,    5.2,    5.2,    5.3,    5.3,    5.2,    5.2,    5.2,    5.3,    5.2,    5.1,    5.3,    5.3,    5.2,    5.2,    5.2,    5.2,    5.2,    5.2,    5.2,    5.2,    5.1,    5.1,    5.1,    5.2,    6.6,    5.1,    5.2,    5.3,    5.1,    3.3,    5.2,    5.2,    5.2,    5.2,    5.2,    5.2,    5.2,    5.3,    5.2,    5.2,    5.3,    5.3,    5.2,    5.2,    5.2,    5.2,    5.2,    5.2,    5.2,    5.2,    5.2
2012/02/07 12:00,  999.0,  999.0,   -0.3,   -0.1,    0.1,    9.1,    8.8,    4.4,    6.6,    6.5,    8.7,    8.7,    8.7,    8.8,    8.8,    8.8,    8.9,    4.4,    4.3,    4.4,    4.4,    4.3,   -0.1,   -0.1,   -0.1,   -0.1,   -0.1,    0.0,    0.0,   -0.0,   -0.1,   -0.0,   -0.0,   -0.2,   -0.0,    0.1,   -0.0,   -0.1,   -0.0,  999.0,   -0.2,   -0.2,   -0.2,   -0.2,   -0.0,   -0.1,   -0.1,   -0.1,   -0.2,   -0.1,    0.0,   -0.1,   -0.1,   -0.1,   -0.1,   -0.1,   -0.1,    0.0,   -0.1,   -0.0,   -0.1,   -0.0,   -0.0,   -0.1,   -0.0,    0.0,   -0.0,   -0.1,    0.1,   -0.1,   -0.2,   -0.2,   -0.2,   -0.2,   -0.0,   -0.1,   -0.1,   -0.1,   -0.2,   -0.1
2012/02/07 12:10,  999.0,  999.0,    2.1,   -0.6,    1.9,    4.3,   -0.2,   -1.9,    2.4,    3.4,   -0.1,   -2.7,   -0.1,   -0.2,   -2.9,    2.5,    0.8,    0.8,    3.6,    0.8,    0.8,    2.6,    0.8,    0.8,    0.8,    0.8,    0.7,   -0.1,   -0.2,   -1.7,   -1.7,   -1.8,    5.4,   -0.9,   -0.9,   -1.0,   -1.0,   -1.0,   -0.9,   -1.1,   -1.0,   -1.0,    2.2,   -1.0,   -1.0,   -1.0,   -1.0,   -0.9,   -0.9,   -1.0,   -1.0,    1.8,   -1.0,   -0.9,   -0.9,   -9.9,   -8.8,   -1.0,   -1.1,   -4.7,   -8.8,   -8.9,   -5.4,   -8.8,   -8.9,   -8.9,   -8.9,   -8.9,   -8.9,   -8.9,   -8.9,   -8.9,   -8.8,   -8.8,   -8.9,   -4.5,   -4.4,   -4.4,   -4.4,   -4.4
2012/02/07 12:20,  -17.2,  999.0,  999.0,  999.0,  -23.7,   -8.6,  -13.3,  -13.4,  -17.7,  -13.3,  -13.3,  -13.3,  -13.4,  -13.3,  -13.2,  -13.2,  -13.4,  -13.3,  -13.2,  -13.3,  -13.3,  -13.2,  -13.3,  -13.3,  -13.3,  -13.2,  -13.3,  -13.3,  -13.2,  -13.3,  -13.3,  -13.3,  -13.3,  -13.2,  -13.3,  -13.3,  -13.2,  -13.3,  -13.2,  -13.3,  -13.3,  -12.2,  -13.3,  -13.2,  -12.1,  -13.2,  -13.3,  -13.3,  -12.2,  -12.2,  -13.3,  -12.2,  -12.2,  -12.3,  -13.3,  -12.2,  -17.8,  -12.3,  -11.2,  -14.8,  -26.5,  -29.3,  -26.5,  -14.8,  -29.3,  -29.2,  -29.2,  -26.5,  -26.4,  -29.3,  -14.8,  -14.7,  -29.4,  -29.2,  -14.7,  -12.2,  -12.3,  -12.3,  -12.2,  -12.3
2012/02/07 12:30,  -34.9,  -26.3,  999.0,  -14.3,  -14.3,  -14.2,  -21.2,  -21.1,  -17.7,  -21.2,  -17.6,  -17.7,  -17.7,  -17.7,  -17.7,  -17.8,  -21.1,  -21.1,  -21.2,  -21.2,  -21.1,  -21.1,  -21.2,  -21.2,  -21.1,  -21.1,  -21.2,  -21.2,  -21.1,  -21.1,  -21.1,  -21.2,  -21.2,  -21.1,  -21.1,  -21.1,  -21.1,  -21.1,  -21.1,  -21.2,  -21.1,  -21.2,  -21.1,  -17.6,  -17.7,  -21.2,  -21.1,  -21.2,  -21.2,  -21.3,  -21.2,  -21.2,  -21.2,  -21.2,  -21.2,  -21.2,  -21.2,  -21.2,  -21.2,  -21.2,  -21.2,  -21.3,  -21.3,  -21.2,  -21.1,  -21.3,  -21.2,  -21.2,  -21.2,  -21.3,  -21.2,  -17.7,  -17.6,  -17.6,  -17.6,  -17.7,  -17.7,  -17.6,  -17.7,  -17.8
2012/02/07 12:40,  999.0,   -0.3,  -22.1,  -13.8,  -13.4,  -16.3,  -13.5,  -15.9,  -16.8,  -16.6,  -16.7,  -13.5,  -13.5,  -13.6,  -13.4,  -13.5,  -16.7,  -16.6,  -16.6,  -16.7,  -16.7,  -16.6,  -13.4,  -19.8,  -16.6,  -13.3,  -13.4,  -13.4,  -13.4,  -16.6,  -16.6,  -13.4,  -16.6,  -16.7,  -13.4,  -13.5,  -13.4,  -13.4,  -13.4,  -16.7,  -13.4,  -13.4,  -13.6,  -13.5,  -13.4,  -17.8,  -16.6,  -16.7,  -16.7,  -16.7,  -13.5,  -13.4,  -13.4,  -17.7,  -13.3,  -13.3,  -13.4,  -13.4,  -13.4,  -13.4,  -16.6,  -16.6,  -16.5,  -16.7,  -13.4,  -13.5,  -13.4,  -13.4,  -13.5,  -16.6,  -13.4,  -20.0,  -20.1,  -26.4,  -26.4,  -26.5,  -26.4,  -26.4,  -26.5,  -26.5
2012/02/07 12:50,  999.0,  999.0,  -26.4,  -20.0,  -22.2,  -22.1,  -18.5,  -18.5,  -26.5,  -23.8,  -19.9,  -21.2,  -21.2,  -23.9,  -21.2,  -21.2,  -23.8,  -21.2,  -23.8,  -21.2,  -18.6,  -19.9,  -19.9,  -23.8,  -26.5,  -21.2,  -21.2,  -21.3,  -23.2,  -21.2,  -21.2,  -26.5,  -23.8,  -21.2,  -21.2,  -20.0,  -19.9,  -19.9,  -26.5,  -26.5,  -21.2,  -21.2,  -21.2,  -26.5,  -21.2,  -21.2,  -23.8,  -21.2,  -23.9,  -21.2,  -16.6,  -19.9,  -19.9,  -23.1,  -26.5,  -21.2,  -23.9,  -21.3,  -18.6,  -21.2,  -21.2,  -26.5,  -23.9,  -21.2,  -21.2,  -23.9,  -21.2,  -21.2,  -26.5,  -26.5,  -21.2,  -23.9,  -21.2,  -23.9,  -21.2,  -21.2,  -26.4,  -21.2,  -23.9,  -21.2
2012/02/07 13:00,  -19.8,  -26.2,  999.0,  -19.9,  -26.3,  -26.6,  -26.6,  -26.6,  -26.6,  -26.6,  -26.5,  -26.5,  -26.6,  -26.5,  -26.6,  -26.6,  -26.6,  -26.5,  -26.5,  -26.7,  -26.6,  -26.6,  -26.6,  -26.6,  -26.5,  -26.5,  -26.6,  -26.6,  -26.6,  -26.6,  -26.6,  -26.6,  -26.5,  -26.5,  -26.6,  -26.5,  -26.5,  -26.5,  -26.6,  -26.6,  -26.6,  -26.6,  -26.5,  -26.6,  -26.6,  -26.6,  -26.6,  -26.5,  -26.5,  -26.7,  -26.6,  -26.6,  -26.6,  -26.6,  -26.5,  -26.5,  -26.7,  -26.6,  -26.6,  -26.6,  -26.6,  -26.6,  -26.6,  -26.5,  -26.6,  -26.5,  -26.5,  -26.5,  -26.6,  -26.6,  -26.6,  -26.5,  -26.5,  -26.6,  -26.6,  -26.6,  -26.6,  -26.5,  -26.5,  -26.7
2012/02/07 13:10,  -15.7,   -8.7,   -0.0,  -13.2,  -26.4,  -26.6,  -26.5,  -26.4,  -26.6,  -26.5,  -26.4,  -26.4,  -26.5,  -26.5,  -26.6,  -26.5,  -26.5,  -26.5,  -26.6,  -26.5,  -26.5,  -26.6,  -26.5,  -26.5,  -26.5,  -26.5,  -26.5,  -26.6,  -26.5,  -26.5,  -26.5,  -26.5,  -26.5,  -26.5,  -26.6,  -26.6,  -26.5,  -26.5,  -26.5,  -26.5,  -26.5,  -26.5,  -26.6,  -26.5,  -26.6,  -26.5,  -26.5,  -26.6,  -26.6,  -26.5,  -26.6,  -26.6,  -26.6,  -26.6,  -26.5,  -26.5,  -26.6,  -26.5,  -26.5,  -26.6,  -26.6,  -26.5,  -26.5,  -26.5,  -26.6,  -26.6,  -26.5,  -26.5,  -26.6,  -26.5,  -26.5,  -26.6,  -26.7,  -26.6,  -26.6,  -26.5,  -26.5,  -26.6,  -26.6,  -26.5
2012/02/07 13:20,  -19.8,  -26.5,  999.0,  -22.2,  -22.1,  -26.7,  -17.8,  -19.9,  -26.6,  -23.3,  -23.2,  -23.2,  -23.2,  -23.2,  -23.2,  -23.2,  -23.3,  -23.2,  -19.9,  -19.9,  -19.8,  -19.9,  -19.9,  -19.9,  -19.9,  -19.8,  -19.9,  -19.9,  -19.9,  -19.9,  -19.9,  -23.2,  -23.3,  -19.9,  -19.9,  -19.9,  -19.9,  -19.9,  -19.9,  -19.9,  -19.9,  -19.9,  -19.9,  -19.9,  -19.9,  -19.9,  -17.7,  -19.9,  -19.9,  -19.9,  -19.8,  -19.9,  -19.9,  -19.9,  -19.9,  -19.8,  -16.6,  -19.9,  -19.9,  -19.9,  -19.9,  -19.9,  -19.9,  -16.6,  -16.6,  -19.9,  -19.9,  -19.9,  -23.2,  -19.9,  -19.9,  -19.9,  -19.9,  -19.9,  -19.9,  -19.9,  -19.9,  -19.9,  -19.9,  -19.9
2012/02/07 13:30,  999.0,   -8.8,  -15.6,  -15.5,  -13.2,  -13.2,   -8.8,   -8.8,   -8.8,  -13.1,  -13.2,   -8.9,  -13.3,  -13.3,  -13.3,  -13.2,  -13.2,  -13.3,  -13.2,  -13.3,  -13.3,  -13.3,  -13.3,  -13.3,  -13.3,  -13.3,  -13.4,  -17.7,  -13.3,  -13.3,  -13.3,  -13.3,  -13.3,  -13.4,  -13.3,  -17.7,  -13.3,  -13.3,  -13.3,  -13.2,  -13.3,  -13.3,  -13.3,  -13.3,  -13.3,  -13.2,  -13.3,  -13.3,  -13.3,  -13.3,  -13.2,  -13.3,  -10.6,   -8.0,   -8.0,   -8.1,   -8.1,  -10.0,   -8.0,   -8.0,  -10.6,  -13.2,  -17.7,  -10.7,   -8.0,  -10.6,   -8.0,   -7.9,   -5.4,  -13.2,   -8.9,  -13.3,   -8.0,   -8.0,   -8.0,   -8.0,   -8.0,   -8.0,   -7.9,   -8.0
2012/02/07 13:40,  999.0,  999.0,  999.0,  999.0,  999.0,  999.0,  999.0,  999.0,  999.0,  999.0,  999.0,  999.0,  999.0,  999.0,  999.0,  999.0,  999.0,  999.0,  999.0,  999.0,  999.0,  999.0,  999.0,  999.0,  999.0,  999.0,  999.0,  999.0,  999.0,  999.0,  999.0,  999.0,  999.0,  999.0,  999.0,  999.0,  999.0,  999.0,  999.0,  999.0,  999.0,  999.0,  999.0,  999.0,  999.0,  999.0,  999.0,  999.0,  999.0,  999.0,  999.0,  999.0,  999.0,  999.0,  999.0,  999.0,  999.0,  999.0,  999.0,  999.0,  999.0,  999.0,  999.0,  999.0,  999.0,  999.0,  999.0,  999.0,  999.0,  999.0,  999.0,  999.0,  999.0,  999.0,  999.0,  999.0,  999.0,  999.0,  999.0,  999.0
2012/02/07 13:50,  999.0,  999.0,  999.0,  999.0,  999.0,  999.0,  999.0,  999.0,  999.0,  999.0,  999.0,  999.0,  999.0,  999.0,  999.0,  999.0,  999.0,  999.0,  999.0,  999.0,  999.0,  999.0,  999.0,  999.0,  999.0,  999.0,  999.0,  999.0,  999.0,  999.0,  999.0,  999.0,  999.0,  999.0,  999.0,  999.0,  999.0,  999.0,  999.0,  999.0,  999.0,  999.0,  999.0,  999.0,  999.0,  999.0,  999.0,  999.0,  999.0,  999.0,  999.0,  999.0,  999.0,  999.0,  999.0,  999.0,  999.0,  999.0,  999.0,  999.0,  999.0,  999.0,  999.0,  999.0,  999.0,  999.0,  999.0,  999.0,  999.0,  999.0,  999.0,  999.0,  999.0,  999.0,  999.0,  999.0,  999.0,  999.0,  999.0,  999.0
2012/02/07 14:00,  999.0,    5.8,   -0.1,    1.7,    3.5,    3.6,    1.8,    1.8,    1.8,    1.7,    1.7,    1.7,    1.7,    1.7,    1.7,    1.7,    1.7,    1.8,    1.7,   -0.1,    1.7,    1.7,   -0.1,   -0.1,    1.7,    1.7,    1.7,    1.7,    1.7,    1.7,    1.7,    1.7,    1.7,    1.7,    1.7,    1.7,    1.7,    1.7,    1.8,    1.7,    1.7,    1.7,    1.7,    1.7,    1.7,    1.7,    1.7,    1.8,    1.7,   -0.1,    1.7,    1.7,   -0.1,   -0.1,    1.7,    1.7,    1.7,    1.7,    1.7,    1.7,    1.7,    1.7,    1.7,    1.7,    1.7,    1.7,    1.7,    1.8,    1.8,    1.7,    1.7,    1.7,    1.7,    1.7,    1.7,    1.7,    1.7,    1.8,    1.7,   -0.1
2012/02/07 14:10,   -0.2,    2.7,    8.9,    4.5,   12.0,    6.5,    7.1,    7.0,    5.1,    6.9,    7.0,    7.0,    7.0,    7.0,    7.0,    6.9,    6.9,    8.7,    6.9,    7.0,    7.0,    6.9,    6.9,    6.9,    6.9,    7.0,    7.0,    7.0,    6.9,    7.0,    6.9,    6.9,    7.0,    7.0,    7.0,    5.3,    7.0,    7.0,    8.7,    7.0,    7.0,    7.0,    7.0,    7.0,    7.0,    6.9,    6.9,    7.0,    7.0,    7.0,    7.0,    7.0,    6.9,    6.9,    6.9,    8.7,    7.0,    7.0,    6.9,    6.9,    6.9,    6.9,    7.0,    7.0,    7.0,    7.0,    7.0,    7.0,    8.7,    7.0,    7.0,    7.0,    7.0,    7.0,    7.0,    6.9,    6.9,    7.0,    6.9,    7.0
2012/02/07 14:20,   -0.0,    4.5,    5.7,    4.2,    8.6,    8.6,    5.9,    3.5,    3.5,    3.5,    3.6,    3.5,    3.5,    3.5,    3.5,    3.5,    3.5,    3.5,    3.5,    3.5,    3.5,    3.5,    3.5,    3.5,    3.5,    3.5,    3.6,    3.6,    3.5,    3.5,    3.5,    3.5,    3.4,    3.5,    3.5,    3.5,    3.5,    3.5,    3.4,    3.4,    3.5,    3.5,    3.5,    3.5,    3.5,    3.5,    3.5,    3.5,    3.5,    3.5,    3.5,    3.5,    3.5,    3.5,    3.5,    3.5,    3.6,    3.6,    3.5,    3.5,    3.5,    3.5,    3.4,    3.5,    3.5,    3.5,    3.5,    3.5,    3.4,    3.4,    3.5,    3.5,    3.5,    3.5,    3.5,    3.5,    3.5,    3.5,    3.5,    3.5
2012/02/07 14:30,   -0.0,    4.3,    2.2,  999.0,    4.5,    8.7,    6.7,    5.3,    1.7,    1.7,   -0.1,   -0.1,   -0.0,   -0.0,   -0.1,   -0.0,   -0.1,   -0.1,   -0.1,   -0.1,   -0.1,   -0.1,   -0.0,   -0.0,   -0.1,   -0.1,   -0.1,   -0.1,    1.7,    1.7,    1.8,    1.7,    1.7,    2.2,    2.2,   -0.0,    1.8,    1.7,    1.7,    1.8,    1.7,   -0.0,   -0.0,   -0.1,   -0.0,   -0.1,   -0.1,   -0.1,   -0.0,   -0.1,   -0.1,   -0.1,    0.0,   -0.0,   -0.1,   -0.1,   -0.1,   -0.1,    1.7,   -0.1,    1.8,    1.7,    1.7,    1.8,    1.7,    1.8,    1.8,    1.7,    1.7,    1.8,    1.7,   -0.0,   -0.0,   -0.1,   -0.0,   -0.1,   -0.1,   -0.1,   -0.0,   -0.1
2012/02/07 14:40,  999.0,    0.5,  999.0,   -0.0,   -0.0,   -0.3,    0.1,   -0.0,    0.0,    0.0,    0.0,    0.1,    0.1,   -0.0,    0.0,    0.1,   -0.0,   -0.0,    0.1,    0.1,    0.1,    0.1,    0.1,    0.1,    0.0,    0.1,    0.2,    0.1,    0.1,    0.2,    0.0,    0.0,    0.1,    0.2,    0.1,    0.1,    0.0,    0.0,    0.0,   -0.0,    0.1,    0.1,    0.1,    0.0,    0.0,    0.1,    0.0,    0.0,    0.1,    0.1,    0.1,    0.1,    0.1,    0.1,    0.0,    0.1,    0.2,    0.1,    0.1,    0.1,    0.0,    0.0,    0.1,    0.2,    0.1,    0.1,    0.1,    0.1,    0.0,    0.0,    0.1,    0.1,    0.1,    0.0,    0.0,    0.1,   -0.0,    0.0,    0.1,    0.1
2012/02/07 14:50,   -0.2,  999.0,   -0.2,  999.0,   -0.2,   -0.0,   -0.0,    0.0,   -0.1,    0.0,    0.0,    0.0,    0.0,    0.1,    0.1,    0.0,   -0.0,    0.0,    2.2,    1.8,    0.0,    1.8,    1.8,    1.8,    1.7,    1.8,    0.1,    0.0,    0.0,    0.0,    0.0,   -2.2,   -2.2,    0.0,    3.6,    3.6,    3.5,    3.5,    3.5,    3.5,    4.4,    0.0,    0.0,    0.1,    0.1,    0.0,   -0.0,    3.5,    4.4,    0.1,    3.5,    3.5,    3.5,    3.5,    3.5,    3.5,    0.0,    0.1,    3.5,    3.5,    3.5,    1.7,    3.5,    4.4,    3.6,    3.6,    3.5,    3.5,    3.5,    1.7,    4.4,    0.0,    0.1,    0.1,    0.1,    0.0,    0.0,    0.1,    0.0,    0.1
2012/02/07 15:00,    0.0,    0.0,   -0.0,    0.0,   -0.1,    0.1,    0.0,    0.0,   -0.0,   -0.0,    0.0,    0.0,    0.1,    0.0,    0.1,   -0.0,   -0.0,   -0.0,   -0.0,    0.0,    0.1,    0.1,    0.0,    0.0,   -0.1,   -0.0,   -0.0,    0.0,    0.1,    0.1,   -0.1,   -0.1,   -0.0,   -0.0,    0.1,   -0.0,   -0.0,   -0.0,   -0.1,   -0.0,   -0.0,    0.0,    0.1,    0.1,    0.1,   -0.0,   -0.0,   -0.0,   -0.0,    0.0,    0.1,    0.1,   -0.0,    0.0,   -0.0,   -0.0,   -0.0,    0.0,    0.1,    0.1,   -0.0,   -0.0,   -0.1,   -0.0,    0.1,    0.0,   -0.0,   -0.0,   -0.1,   -0.0,   -0.0,    0.0,    0.1,    0.1,    0.0,   -0.0,   -0.0,   -0.0,   -0.0,    0.0
2012/02/07 15:10,    0.0,   -0.0,   -0.0,   -0.3,   -0.1,   -0.1,   -0.1,   -0.0,   -0.0,   -0.0,   -0.0,    0.0,   -0.1,   -0.1,   -0.1,   -0.1,   -0.1,   -0.0,    0.0,   -0.0,   -0.1,    1.7,   -0.0,    1.7,    1.7,    1.7,   -0.0,    1.7,   -0.0,    1.8,   -0.1,   -0.0,   -0.0,    1.8,    1.7,   -0.1,    1.7,   -0.0,   -0.0,   -0.0,   -0.0,    1.8,    1.7,    1.7,    1.7,   -0.0,   -0.0,    0.0,    0.0,   -0.0,   -0.1,    1.7,   -0.0,   -0.1,   -0.0,   -0.0,   -0.0,   -0.1,   -0.0,    1.8,   -0.1,   -0.0,   -0.0,    1.8,    1.7,   -0.1,    1.7,   -0.0,   -0.0,   -0.0,   -0.0,    1.8,    1.7,    1.7,    1.7,   -0.1,   -0.0,    0.0,    0.0,   -0.0
2012/02/07 15:20,    0.2,    0.1,    0.3,   -0.1,   -0.4,    0.2,    0.1,   -0.0,    0.1,    0.0,    0.0,    0.0,    0.1,    0.0,    0.0,    0.0,    0.0,    0.0,    0.1,    0.1,   -0.0,   -0.0,    0.0,   -0.0,    0.0,   -0.0,    0.1,    0.0,   -0.0,    0.0,   -0.0,   -0.1,   -0.0,    0.1,    0.1,   -0.0,    0.0,    0.0,    0.0,    0.0,    0.0,    0.1,    0.1,    0.0,    0.0,    0.0,    0.1,    0.0,    0.1,   -0.0,   -0.0,   -0.0,    0.0,   -0.1,    0.1,    0.1,    0.1,   -0.0,   -0.0,    0.1,    0.0,    0.0,    0.0,    0.1,    0.1,   -0.0,   -0.0,    0.0,    0.0,    0.0,    0.0,    0.1,    0.1,    0.0,    0.1,    0.0,   -0.0,    0.0,    0.1,    0.0
2012/02/07 15:30,    0.0,    0.2,    7.1,    5.7,    4.4,    5.6,    5.2,    5.2,    5.2,    2.2,    5.2,    5.3,    5.2,    5.2,    5.3,    5.2,    5.2,    7.0,    5.2,    5.2,    5.2,    5.3,    5.3,    5.2,    3.5,    5.3,    5.2,    5.2,    5.2,    5.2,    5.2,    5.2,    5.3,    5.2,    5.2,    5.2,    5.2,    5.2,    5.2,    0.0,    2.2,    5.3,    5.3,    5.2,    2.3,    2.2,    5.2,    4.4,    5.2,    5.3,    5.2,    5.3,    5.3,    5.2,    3.5,    5.3,    5.2,    5.2,    5.2,    5.2,    5.2,    5.2,    5.3,    5.2,    5.2,    5.2,    5.2,    5.2,    5.2,    2.1,    5.2,    5.3,    5.3,    5.2,    5.3,    5.2,    5.2,    4.3,    5.2,    5.3
2012/02/07 15:40,    0.3,   -0.0,    4.7,    4.5,  999.0,  999.0,   17.6,    6.5,    4.3,    4.3,    6.6,    6.5,    6.5,    6.5,    6.4,    6.6,    4.3,    6.6,    6.6,    6.5,    8.8,    6.5,    4.2,    4.3,    6.6,    6.6,    6.6,    6.5,    6.5,    6.5,    6.5,    5.8,    6.6,    6.6,    6.6,    8.9,    4.3,    4.3,   -0.1,    4.3,    6.6,    6.6,    6.6,    6.6,    4.3,    4.3,    4.3,    6.6,    6.6,    6.5,    6.5,    6.5,    4.2,    4.3,    6.6,    6.6,    6.6,    6.5,    6.5,    6.5,    6.5,    6.6,    6.6,    6.6,    6.6,    6.6,    6.5,    6.6,    4.3,    4.3,    6.6,    6.6,    6.6,    6.6,    4.3,    4.4,    4.3,    6.6,    6.6,    6.5
2012/02/07 15:50,   15.9,    8.8,   17.6,   12.3,   12.3,   10.4,   12.1,   11.0,   11.7,   11.7,   11.7,   13.2,   11.7,   11.7,   11.7,   11.7,   11.7,   11.7,   11.7,   11.7,   11.7,   11.6,   11.7,   11.7,   11.7,   11.7,   11.7,   11.7,   11.7,   13.0,   11.6,   11.6,   11.6,   11.6,   11.7,   11.6,   11.6,   13.1,   11.6,   11.6,   14.6,   13.1,   11.7,   13.1,   13.1,   13.2,   13.2,   13.2,   13.2,   13.2,   13.2,   14.6,   14.6,   13.2,   13.2,   13.2,   13.2,   13.2,   13.2,   14.5,   13.1,   13.1,   13.2,   11.6,   11.7,   13.1,   13.1,   13.1,   13.1,   11.6,   14.6,   14.6,   13.2,   13.1,   13.1,   13.2,   13.2,   13.2,   13.2,   13.2
2012/02/07 16:00,   -0.2,    1.7,    5.9,    5.8,    5.9,    0.1,   -0.0,   -0.0,   -0.1,   -0.1,   -0.1,   -0.0,   -0.1,   -0.1,   -0.0,   -0.0,   -0.1,   -0.1,   -0.0,   -0.0,   -0.0,    0.0,   -0.0,   -0.1,   -0.1,   -0.1,   -0.1,   -0.0,   -0.1,    0.0,   -0.1,   -0.1,   -0.1,   -0.1,   -0.0,   -0.0,    0.0,   -0.0,   -0.0,   -0.1,   -0.0,    0.0,    0.0,   -0.1,    0.0,   -0.0,   -0.0,    0.0,    0.0,    0.0,   -0.1,    0.0,    0.1,   -0.0,   -0.1,    0.0,   -0.0,    0.0,   -0.0,    0.0,   -0.0,   -0.1,   -0.1,   -0.1,   -0.1,   -0.0,    0.0,   -0.0,   -0.0,   -0.0,   -0.0,    0.1,    0.0,   -0.1,    0.0,   -0.0,   -0.0,    0.0,    0.0,    0.0
2012/02/07 16:10,   11.5,    5.3,  999.0,    5.8,   11.0,    8.8,   -0.1,   -0.1,   -0.0,   -0.0,   -0.0,   -0.0,    0.0,    0.0,   -0.0,    0.0,    0.0,    0.0,    0.0,    0.0,    0.0,    0.0,    0.0,    0.1,    0.0,    0.0,    0.1,    0.1,    0.1,    0.0,    0.0,    0.0,   -0.0,    0.0,    0.0,    0.0,    0.0,    0.0,    0.0,    0.0,    0.0,    0.0,    0.1,    0.1,    0.0,   -0.0,    0.0,    0.0,    0.0,    0.0,    0.1,    0.0,    0.0,    0.1,    0.0,    0.0,    0.1,    0.1,    0.1,    0.0,    0.0,    0.0,   -0.0,    0.0,    0.0,    0.0,    0.0,    0.0,    0.0,    0.0,    0.0,   -0.0,    0.1,    0.1,    0.0,   -0.0,    0.0,    0.0,    0.0,    0.0
2012/02/07 16:20,    8.5,    8.8,    0.2,    4.2,   17.6,   17.7,    8.8,    6.6,    6.6,    6.6,    6.6,    6.6,    6.6,    6.8,    6.7,    6.6,    6.7,    6.8,    6.7,    6.6,    6.7,    6.7,    6.6,    6.6,    8.8,    6.7,    6.7,    6.7,    6.7,    6.6,    6.7,    6.6,    6.7,    4.5,    6.7,    6.8,    8.9,    6.7,    6.6,    6.5,    6.6,    6.7,    6.7,    6.7,    8.8,    8.8,    8.7,    8.9,    8.8,    6.7,    6.7,    8.9,    8.8,    8.8,    8.8,    8.9,    8.9,    6.7,    8.9,    8.9,    6.7,    8.8,    8.9,    6.6,    6.7,    6.7,    8.9,    8.9,    8.9,    8.7,    8.8,    8.8,    6.7,    8.9,    8.8,    8.8,    8.7,    8.9,    8.9,    8.8
2012/02/07 16:30,    0.3,    4.5,   13.1,    8.5,   11.7,    8.9,   10.5,   10.4,   10.5,   10.4,   10.5,   10.6,   10.5,   10.5,   10.5,   10.5,   10.5,   12.2,   10.6,   10.5,   10.5,    8.8,   10.5,   10.5,   12.2,   10.5,   10.6,   10.5,   10.5,   10.5,   10.5,   10.5,   10.5,    8.7,   10.6,   10.5,   12.2,   10.5,   10.6,   12.3,   10.5,   10.6,   10.5,   10.5,   12.2,   10.5,   12.2,   10.5,   10.6,   10.5,   10.5,    8.8,   10.5,   10.5,   12.2,   10.5,   10.6,   10.5,    8.8,   10.5,   10.5,   10.5,   10.5,    8.7,   10.6,   10.5,   10.5,   10.5,   10.5,   12.2,   12.3,   10.6,   10.5,   10.6,   10.5,   10.5,   12.2,   10.5,   10.6,   10.5
2012/02/07 16:40,  999.0,    5.9,  999.0,    2.2,    2.2,    1.7,    3.5,    1.7,    1.7,    1.7,    1.8,    1.7,    1.8,    1.8,    1.7,    1.8,    1.8,    1.8,    1.8,    1.8,    1.8,    1.8,    1.7,    1.7,    1.8,    1.8,    1.8,    1.8,    1.8,    1.8,    1.8,    1.8,    1.8,    1.8,    1.8,    1.8,    1.8,    1.7,    1.7,    1.8,    1.8,    1.8,    1.8,    1.8,    1.7,    1.7,    1.8,    1.8,    1.8,    1.8,    1.8,    1.8,    1.8,    1.7,    1.8,    1.8,    1.8,    0.1,    1.8,    1.8,    1.8,    1.8,    1.8,    1.8,    1.8,    1.8,    1.7,    1.7,    1.7,    1.7,    1.8,    1.8,    1.8,    1.8,    1.7,    1.7,    1.8,    1.8,    1.8,    1.8
2012/02/07 16:50,  999.0,    0.0,  999.0,    0.0,    0.2,    0.1,    0.1,   -0.0,    0.0,    0.0,    0.0,    0.0,    0.0,    0.0,    0.0,    0.0,    0.0,    0.1,    0.0,    0.0,    0.0,    0.0,   -0.0,   -0.0,    0.0,    0.0,   -0.0,    0.0,    0.0,   -0.0,    0.0,    0.0,   -0.0,   -0.0,   -0.0,    0.0,    0.0,   -0.0,    0.0,   -0.0,    0.0,    0.0,    0.0,    0.0,    0.0,    0.0,    0.0,    0.1,    0.0,    0.0,    0.1,    0.0,   -0.0,   -0.0,    0.0,    0.0,    0.0,    0.0,    0.0,   -0.0,    0.0,    0.0,   -0.0,    0.0,   -0.0,    0.0,    0.0,   -0.0,   -0.0,   -0.0,    0.0,    0.0,    0.0,    0.0,    0.0,    0.0,    0.0,    0.1,    0.0,    0.0
2012/02/07 17:00,   -0.4,   -0.2,  999.0,    0.2,    0.1,    0.2,    0.0,   -0.0,    0.0,    0.0,    0.0,    0.1,    0.1,    0.0,    0.0,    0.0,    0.1,    0.1,    0.1,    0.1,    0.1,    0.1,    0.0,    0.1,    0.0,    0.0,    0.1,    0.1,    0.1,    0.0,    0.0,    0.0,    0.0,    0.0,    0.1,    0.1,    0.0,    0.0,    0.0,    0.0,    0.1,    0.1,    0.1,    0.0,    0.0,    0.1,    0.1,    0.1,    0.1,    0.1,    0.1,    0.1,    0.0,    0.1,    0.0,    0.0,    0.0,    0.0,    0.1,    0.0,    0.0,    0.0,    0.0,    0.0,    0.1,    0.1,    0.0,    0.0,    0.0,    0.0,    0.1,    0.1,    0.1,    0.0,    0.0,    0.1,    0.1,    0.1,    0.1,    0.1
2012/02/07 17:10,  999.0,  999.0,  999.0,  999.0,    6.0,    8.8,    7.1,    5.2,    5.3,    5.3,    7.0,    5.3,    5.3,    3.6,    7.1,    5.2,    5.3,    5.3,    5.3,    5.3,    5.3,    3.5,    5.3,    6.6,    5.3,    5.3,    5.3,    5.3,    5.3,    5.3,    5.3,    5.3,    5.4,    5.3,    5.3,    5.4,    5.3,    7.0,    5.3,    5.3,    5.3,    5.3,    5.3,    5.3,    7.0,    5.3,    5.2,    5.3,    5.3,    5.3,    5.3,    5.3,    5.3,    5.3,    5.3,    5.3,    6.6,    5.3,    5.3,    5.3,    5.3,    5.3,    5.3,    5.3,    5.3,    5.3,    5.3,    7.0,    5.3,    5.3,    5.3,    5.3,    5.4,    3.6,    4.4,    5.3,    5.3,    5.3,    5.3,    5.3
2012/02/07 17:20,    8.7,   11.7,   13.1,   15.3,   11.9,   13.1,    8.9,    9.0,    8.9,    8.8,   12.4,    8.8,    8.8,    8.9,    8.9,    8.8,    8.8,    8.8,    8.8,    8.8,    8.9,   10.6,    8.9,    8.9,    7.1,    8.8,    8.8,    8.8,    8.8,    8.9,    8.8,    8.8,    8.8,    8.8,    8.8,    8.8,    8.8,    8.8,    8.8,    8.8,    8.8,    8.8,   10.6,    8.9,   10.7,    5.4,    6.7,    8.7,    8.8,    8.8,    8.8,   10.6,    8.9,    8.9,    7.1,    8.8,    8.8,    8.8,    8.8,    8.9,    8.8,    8.8,    8.8,    7.1,    8.8,    8.8,    8.8,    7.1,    8.8,    8.8,    8.8,    8.8,    8.8,    8.9,    8.9,    7.1,    8.9,    8.8,    8.8,    8.8
2012/02/07 17:30,   -0.1,  999.0,  999.0,    0.0,  999.0,    2.9,    4.3,    2.2,    4.4,    2.2,    2.2,    2.1,    2.2,    2.1,    2.1,    2.1,    2.1,    2.2,    5.2,    2.2,    4.4,    2.1,    2.1,    2.1,    2.2,    5.3,    2.2,    2.1,    2.2,    4.3,   -0.1,    2.2,    2.2,    2.2,    2.2,    2.2,    2.2,    2.9,    2.1,    2.3,    2.2,    2.2,    0.1,    2.9,    4.2,    2.9,    2.9,    2.9,    6.5,    2.9,    3.0,    2.9,    6.5,    6.6,    6.6,    8.8,    6.6,    6.5,    6.6,    6.6,    4.3,    2.9,    3.0,    3.0,    3.0,    2.9,    3.0,    4.4,    2.9,    3.0,    3.0,    2.9,    3.0,    2.9,    4.2,    2.9,    2.9,    2.2,    5.2,    2.2
2012/02/07 17:40,  999.0,  999.0,  999.0,  999.0,   -0.1,   -8.9,   -8.9,   -9.0,   -8.9,   -8.8,  -13.2,   -8.9,   -8.8,  -13.2,  -13.2,   -8.9,   -8.8,   -8.8,   -8.8,   -8.8,   -8.8,   -8.7,   -8.8,   -8.8,   -8.7,   -8.7,   -8.7,   -8.8,   -8.9,   -8.8,   -8.7,   -8.8,   -8.8,   -8.8,   -8.8,   -8.8,   -8.9,   -8.9,   -4.5,   -8.8,   -8.8,   -8.7,   -8.8,   -8.8,   -8.8,   -8.8,   -8.8,   -8.8,   -8.8,   -8.8,   -8.8,   -8.7,   -8.8,   -8.8,   -8.7,   -8.7,   -8.7,   -8.8,   -8.8,   -8.8,   -8.7,   -8.7,   -8.8,   -8.8,   -8.8,   -8.8,   -8.9,   -8.9,   -8.8,   -8.8,   -8.8,   -8.7,   -8.8,   -8.8,   -8.8,   -8.8,   -8.8,   -8.8,   -8.7,    0.1
2012/02/07 17:50,   -6.4,  999.0,  -13.6,  -16.7,  -18.6,  -15.8,  -13.2,  -10.0,  -18.4,  -16.0,  -15.9,  -16.0,  -16.0,  -16.0,  -13.3,  -13.3,  -16.0,  -16.0,  -13.4,  -15.9,  -13.3,  -16.0,  -16.0,  -15.9,  -13.4,  -13.4,  -13.3,  -13.4,  -16.0,  -16.0,  -16.0,  -16.0,  -16.0,  -15.9,  -19.5,  -15.9,  -15.9,  -19.5,  -15.9,  -15.9,  -15.9,  -16.0,  -15.9,  -17.7,  -19.5,  -19.4,  -19.6,  -16.1,  -17.8,  -17.8,  -19.5,  -19.6,  -19.5,  -19.4,  -19.5,  -16.0,  -19.4,  -17.7,  -17.7,  -19.3,  -19.4,  -19.5,  -19.5,  -17.7,  -16.0,  -16.0,  -15.9,  -15.9,  -19.4,  -12.3,  -15.9,  -15.9,  -15.9,  -15.9,  -15.9,  -15.9,  -16.0,  -16.0,  -15.9,  -15.9
2012/02/07 18:00,  999.0,  999.0,  999.0,  999.0,   -3.6,    0.1,   -7.1,   -7.0,   -3.6,  -10.6,   -8.9,   -9.0,   -8.9,   -8.8,    5.9,    5.9,  -13.1,   -8.8,   -8.8,   -7.1,   -7.0,   -7.0,  -10.6,   -7.0,   -3.5,   -7.0,   -7.0,   -6.0,   -8.7,   -7.0,   -7.0,    0.0,   -7.1,  -10.6,  -10.5,  -13.1,  -10.5,  -10.5,  -10.6,  -10.6,  -14.1,  -10.5,  -13.2,  -10.5,  -10.5,  -10.5,  -10.6,  -10.6,  -10.5,  -10.5,  -13.1,  -14.1,  -10.6,  -10.5,   -7.0,  -10.5,  -10.5,  -10.6,  -10.5,  -10.5,  -10.6,   -4.4,  -10.6,  -10.5,  -10.5,  -10.5,  -10.5,  -10.6,  -10.6,  -10.6,  -10.5,  -10.5,  -10.6,  -10.5,  -10.5,  -10.5,  -10.5,  -10.7,  -10.6,  -10.5
2012/02/07 18:10,  -11.6,  -11.7,  999.0,  999.0,  999.0,  999.0,  -13.1,  -10.6,  -13.3,  -11.5,  -13.3,  -13.9,  -10.5,   -7.1,   -5.8,  -13.1,  -13.1,  -13.1,  -13.2,  -13.1,  -17.5,  -13.1,  -17.6,  -13.1,  -13.1,  -14.0,  -10.5,  -10.6,  -13.2,  -17.5,  -13.1,  -13.2,   -5.8,  -13.1,  -13.1,  -13.2,  -13.1,  -10.5,  -10.5,  -13.9,  -10.6,  -13.2,  -10.5,  -14.0,  -13.1,  -10.5,  -14.0,  -13.1,  -17.5,  -13.2,  -17.5,  -13.1,  -17.6,  -13.2,  -13.1,  -14.0,  -10.5,  -10.6,  -10.6,  -13.1,  -13.1,  -13.2,  -13.1,  -13.1,  -13.1,  -13.2,  -13.1,  -13.1,  -10.5,  -14.0,  -10.5,  -10.5,   -4.3,  -14.0,  -13.1,  -10.5,  -10.5,  -10.5,  -17.5,  -17.5
2012/02/07 18:20,    0.1,   -0.1,   -0.2,   -0.2,   -0.1,   -0.1,   -0.1,   -0.1,   -0.1,   -0.0,    0.0,    0.1,   -0.0,    0.0,   -0.0,    0.0,   -0.0,    0.0,    0.1,   -0.0,   -0.0,    0.1,    0.0,    0.0,    0.0,   -0.0,   -0.0,    0.0,   -0.0,   -0.0,    0.0,    0.0,   -0.0,   -0.0,   -0.1,   -0.0,   -0.0,    0.0,    0.0,    0.0,   -0.1,    0.0,   -0.0,    0.0,    0.0,    0.0,    0.0,   -0.0,    0.0,    0.0,    0.0,    0.1,    0.0,    0.0,    0.0,    0.0,   -0.0,    0.0,   -0.0,   -0.0,    0.0,    0.0,   -0.0,   -0.0,   -0.1,   -0.0,   -0.0,   -0.0,    0.0,    0.0,   -0.1,    0.0,   -0.0,    0.1,    0.0,    0.0,    0.0,   -0.0,    0.0,    0.0
2012/02/07 18:30,  999.0,  999.0,  999.0,  999.0,   12.7,  999.0,   12.7,   12.6,   12.9,   12.9,   12.9,   12.9,   12.8,   12.8,   12.9,   12.9,   12.8,   12.9,   12.9,   12.8,   12.9,   12.8,   12.9,   12.9,   12.8,   12.9,   12.8,   12.7,   12.8,   12.9,   12.8,   12.8,   12.8,   12.8,   12.8,   12.8,   12.8,   12.9,   12.8,   12.8,   12.8,   12.9,   12.8,   12.8,   12.8,   12.8,   12.8,   12.8,   12.8,   12.8,   12.8,   12.7,   12.8,   12.8,   12.8,   12.8,   12.7,   12.6,   12.7,   12.8,   12.7,   12.7,   12.8,   12.8,   12.7,   12.7,   12.7,   12.8,   12.8,   12.7,   12.8,   12.9,   12.8,   12.9,   12.8,   12.8,   12.8,   12.8,   12.8,   12.8
2012/02/07 18:40,  999.0,  999.0,  999.0,  999.0,   -5.8,   -0.4,  999.0,   -6.1,   -5.9,   -5.8,   -3.1,   -2.9,   -2.9,   -5.9,   -2.9,   -3.1,   -3.0,   -2.9,   -2.8,   -2.9,   -3.0,   -3.0,   -3.1,   -2.9,   -2.8,   -2.6,   -2.8,   -2.9,   -2.9,   -2.9,   -2.9,   -2.8,   -2.9,   -2.9,   -2.9,   -3.0,   -3.0,   -2.9,   -2.9,   -2.8,   -2.9,   -2.9,   -2.9,   -3.2,   -2.9,   -3.1,   -2.9,   -2.9,   -2.9,   -2.9,   -3.0,   -0.1,   -0.1,   -4.3,   -2.8,   -2.8,   -2.8,   -2.9,   -2.9,   -2.9,   -2.9,   -2.8,   -2.8,   -2.8,   -2.8,   -3.0,   -3.0,   -2.9,   -2.9,   -2.8,   -2.9,   -2.9,   -2.9,   -3.1,   -2.9,   -3.0,   -2.9,   -2.9,   -2.8,   -2.9
2012/02/07 18:50,  999.0,   -5.5,   -8.5,  999.0,   -2.0,    0.6,   -3.4,   -3.6,   -4.4,   -4.3,   -2.3,   -3.3,   -5.4,   -5.3,   -5.3,   -5.3,   -5.3,   -5.3,   -4.4,   -2.2,   -4.5,   -0.1,    0.0,   -4.3,   -4.3,   -6.5,   -6.6,   -6.6,   -4.4,   -6.6,   -4.4,   -4.4,   -4.4,   -6.4,   -6.6,   -5.3,   -5.4,   -6.6,   -3.5,   -5.3,   -4.3,   -4.3,   -6.6,   -6.6,   -5.2,   -3.6,   -4.3,   -4.5,   -4.5,   -0.1,   -4.5,   -0.1,   -4.5,   -4.5,   -4.4,   -5.7,   -4.5,   -4.5,   -4.5,   -4.5,   -4.4,   -4.4,   -4.4,   -4.3,   -4.5,   -3.6,   -3.7,   -4.5,   -3.5,   -3.6,   -3.5,   -3.5,   -3.6,   -3.5,   -3.6,   -3.6,   -3.6,   -3.6,   -4.5,   -3.6
2012/02/07 19:00,    0.0,    0.1,   -8.7,   -8.7,   -8.9,   -4.5,   -4.4,   -1.6,   -5.2,   -0.0,    0.0,    0.0,    0.0,    0.1,   -0.1,    0.1,    0.1,    0.0,    0.1,    0.1,    0.1,    0.1,    0.1,    0.1,    0.0,    0.1,    0.0,    0.1,    0.0,    0.0,    0.1,    0.1,    0.1,    0.1,    0.1,    0.1,    0.1,    0.1,    0.1,    0.1,    0.1,    0.0,    0.1,    0.1,    0.1,    0.1,    0.1,    0.0,    0.1,    0.1,    0.1,    0.1,    0.1,    0.1,    0.0,    0.1,    0.0,    0.1,    0.1,    0.1,    0.1,    0.1,    0.1,    0.1,    0.1,    0.1,    0.1,    0.1,    0.1,    0.1,    0.1,    0.1,    0.1,    0.1,    0.1,    0.1,    0.1,    0.0,    0.1,    0.1
2012/02/07 19:10,    0.0,   -7.6,   -8.7,  999.0,   -8.7,   -5.7,   -4.5,   -4.5,   -4.3,   -3.1,   -2.3,   -4.3,   -2.2,   -2.2,   -1.8,   -2.3,   -2.4,   -0.2,   -3.2,   -4.4,   -5.6,   -4.3,   -4.4,   -4.5,   -4.4,   -4.4,   -4.4,   -4.3,   -4.4,   -4.4,   -4.3,   -4.4,   -4.4,   -4.4,   -4.3,   -1.7,   -5.6,   -4.3,   -4.4,   -4.4,   -4.3,   -4.3,   -4.3,   -4.2,   -4.2,   -4.4,   -4.4,   -2.7,   -4.4,   -4.3,   -4.3,   -4.3,   -4.3,   -4.4,   -4.4,   -4.3,   -4.3,   -4.3,   -4.4,   -4.3,   -4.3,   -4.4,   -4.4,   -4.3,   -2.1,   -1.8,   -2.3,   -2.6,   -4.4,   -4.4,   -4.3,   -4.3,   -4.3,   -4.2,   -4.1,   -4.4,   -4.4,   -4.5,   -3.2,   -4.3
2012/02/07 19:20,    0.0,   -0.1,   -0.2,    3.5,    4.3,    4.4,    3.5,    3.6,    0.1,    3.6,    3.6,    3.6,    3.6,    4.5,    3.6,    3.6,   -0.0,    3.6,    1.8,    3.7,    3.7,    3.6,    3.6,    3.6,    3.8,    3.6,    3.6,    3.7,    3.6,    3.6,    1.9,    1.8,    3.7,    1.8,    5.4,    0.1,    3.6,    1.9,   -2.0,    1.9,    3.6,    3.5,    0.1,    3.7,    4.5,    1.9,    1.9,    1.9,    1.9,    0.1,    4.6,    0.1,    0.1,    0.1,    0.2,    0.1,    1.8,    1.8,    1.8,    1.8,   -1.6,   -1.7,    0.1,    4.5,    4.4,    1.8,    1.8,   -1.7,    0.0,    1.8,    1.8,   -4.4,   -4.3,    0.2,    0.2,    0.2,    0.1,    0.1,    0.1,    0.1
2012/02/07 19:30,  999.0,   -0.5,    0.1,    0.1,   -2.8,   -3.5,   -1.7,   -1.7,   -1.8,   -1.7,   -1.8,   -1.8,   -1.9,   -1.8,   -1.7,   -1.7,   -1.8,   -1.8,   -5.3,   -5.2,   -5.3,   -5.2,   -5.2,   -3.5,   -5.3,   -5.3,   -4.4,   -5.2,   -5.2,   -5.2,   -5.2,   -5.2,   -5.2,   -5.2,   -6.9,   -5.2,   -4.4,   -6.5,   -4.3,   -8.7,   -4.4,   -8.8,   -4.4,   -5.2,   -5.3,   -4.4,   -4.5,   -4.3,   -4.4,   -4.4,   -4.4,   -4.3,   -4.4,   -2.2,   -3.5,   -3.4,   -3.4,   -6.5,   -1.6,   -3.4,   -6.5,   -6.5,   -6.5,   -6.6,   -4.4,   -3.5,   -1.6,   -3.4,   -3.5,   -3.5,   -3.5,   -3.4,   -6.6,   -6.5,   -6.6,   -6.5,   -6.6,   -6.6,   -6.6,   -6.5
2012/02/07 19:40,  999.0,  999.0,  999.0,  999.0,   -4.4,   -3.0,   -2.9,   -2.9,   -1.5,    0.0,    0.0,    0.0,    1.8,    3.5,    3.5,    5.3,   -1.4,   -2.9,   -2.8,   -2.8,   -2.9,   -2.8,   -2.8,   -2.8,   -2.8,   -5.7,   -2.9,   -2.9,   -2.9,   -2.8,   -2.8,   -2.9,   -2.8,   -5.8,   -2.9,   -2.9,   -2.9,   -2.9,   -2.9,   -5.8,   -2.9,   -3.0,   -2.9,   -2.9,   -2.9,   -2.9,   -2.9,   -2.9,   -2.8,   -2.8,   -2.9,   -2.8,   -2.8,   -2.8,   -2.8,   -2.8,   -2.9,   -2.9,   -2.9,   -2.8,   -2.8,   -2.9,   -2.8,   -2.9,   -2.9,   -2.9,   -2.9,   -2.9,   -2.9,   -5.8,   -2.9,   -3.0,   -2.8,   -2.9,   -3.0,    0.0,   -2.9,   -2.9,   -2.8,   -5.7
2012/02/07 19:50,  999.0,  999.0,    4.3,  999.0,  -10.9,  -12.4,  -12.4,  -10.6,  -12.3,  -12.3,  -10.5,  -10.6,   -8.8,   -8.8,   -8.8,   -8.9,  -10.6,   -8.9,  -10.5,   -8.8,   -8.8,   -8.8,  -10.5,  -10.5,  -10.5,   -7.1,   -8.7,   -8.8,   -8.8,   -8.8,   -8.8,   -8.9,  -10.3,  -10.6,   -8.8,   -8.8,   -8.8,   -8.8,  -10.5,   -8.9,  -10.5,  -10.7,   -8.8,   -8.8,   -8.8,   -8.8,  -10.5,  -10.6,  -10.5,   -8.8,   -8.8,   -8.8,   -8.8,  -10.5,  -10.5,   -7.1,   -7.1,   -8.8,   -8.9,   -8.8,   -8.8,   -7.1,  -10.4,  -10.6,   -8.8,   -8.8,   -8.8,   -8.8,   -8.7,  -10.5,  -10.5,  -12.4,   -8.8,   -8.8,   -8.8,   -8.8,  -12.3,  -10.6,  -10.5,   -8.8
2012/02/07 20:00,   -0.2,    0.1,   -0.3,   -6.6,   -3.4,   -3.5,   -3.5,   -5.2,   -6.6,   -6.5,   -4.4,   -4.5,   -4.3,   -5.8,   -0.2,   -4.4,   -4.6,   -4.4,   -4.4,   -4.5,   -4.4,   -4.4,   -4.3,   -4.3,   -4.4,   -0.2,   -0.1,   -3.0,   -0.1,   -4.3,   -4.3,   -4.3,   -0.3,   -2.9,   -2.9,   -2.8,   -4.3,   -4.3,   -4.3,   -4.3,   -5.6,   -5.8,   -5.7,   -4.4,   -8.7,   -4.4,   -4.6,   -4.4,   -4.4,  999.0,   -4.4,   -4.5,   -4.3,   -4.3,   -4.4,   -4.5,   -0.3,   -4.5,   -4.3,   -4.3,    0.0,   -4.3,   -3.1,   -2.9,   -2.9,   -2.8,   -4.3,   -4.3,   -4.3,   -4.3,   -5.6,   -5.8,   -5.7,   -4.5,  999.0,   -4.4,   -4.6,   -4.4,   -4.5,   -8.6
2012/02/07 20:10,    0.5,    0.1,  999.0,   -0.2,    1.8,    1.7,    2.3,    1.7,    0.0,    1.8,    0.0,    1.7,    1.8,    1.8,    0.1,    1.8,    0.0,    0.1,    0.1,    1.8,    0.1,    0.1,    0.1,    0.1,    0.0,    0.1,    0.1,    0.1,    0.1,   -0.0,    0.0,    0.0,    0.1,    0.1,    0.1,    0.1,   -0.0,   -0.0,    0.1,    0.1,    0.0,    0.1,    1.8,    1.8,    0.0,    0.1,    1.8,    0.1,    0.1,    1.8,    1.8,    0.1,    1.8,    1.8,    0.1,    0.1,    0.1,    0.1,    0.1,    0.0,    0.0,    0.0,    0.1,    0.1,    0.1,    0.1,    0.0,   -0.0,    0.1,    0.1,    1.8,   -0.0,    1.8,    1.8,    0.0,    1.8,    1.8,    0.1,    0.0,    1.8
2012/02/07 20:20,  999.0,  999.0,  999.0,    0.5,   -0.1,  999.0,   -0.1,   -0.1,    0.1,    0.0,   -0.1,   -0.2,   -0.0,   -0.0,    0.1,    0.1,    0.1,   -0.0,    0.0,   -0.0,    0.2,    0.0,    0.2,   -0.1,    0.1,   -0.1,   -0.0,   -0.0,   -0.0,    0.0,    0.0,    0.1,    0.0,    0.1,    0.1,    0.0,    0.0,    0.1,    0.1,    0.1,    0.0,   -0.1,   -0.0,    0.0,    0.1,    0.1,    0.1,   -0.0,    0.0,   -0.0,    0.1,    0.1,    0.1,    0.1,    0.1,   -0.1,    0.0,   -0.1,   -0.0,   -0.0,   -0.0,    0.1,    0.0,    0.1,    0.1,    0.0,   -0.0,    0.1,    0.2,    0.1,    0.0,   -0.0,   -0.0,    0.0,    0.1,    0.1,    0.1,   -0.0,    0.0,   -0.0
2012/02/07 20:30,   -0.4,    0.5,  999.0,   -0.2,    0.2,    0.1,   -0.0,    0.0,    0.2,    0.1,    0.0,   -0.0,   -0.0,   -0.0,    0.1,    0.0,    0.1,    0.1,   -0.1,   -0.1,   -0.1,   -0.0,   -0.0,   -0.0,    0.1,   -0.0,   -0.0,    0.1,   -0.0,    0.0,    0.0,   -0.1,   -0.1,    0.0,   -0.0,    0.0,   -0.0,   -0.0,   -0.0,   -0.0,    0.1,    0.0,    0.0,   -0.0,   -0.0,    0.0,    0.1,    0.1,   -0.1,    0.0,   -0.1,    0.0,   -0.0,   -0.0,    0.1,   -0.0,   -0.0,    0.1,   -0.0,   -0.0,    0.0,    0.0,   -0.0,   -0.0,   -0.0,    0.0,   -0.0,   -0.0,   -0.0,   -0.0,    0.1,    0.0,   -0.0,   -0.0,   -0.0,    0.0,    0.1,    0.1,   -0.1,    0.0
2012/02/07 20:40,   -0.0,  999.0,    0.3,   -0.3,    0.0,   -0.1,   -0.1,   -0.0,   -0.0,    0.0,   -0.0,    0.0,    0.1,    0.0,   -0.0,   -0.1,   -0.1,    0.0,    0.0,    0.1,   -0.0,   -0.1,   -0.1,   -0.1,   -0.1,   -0.1,    0.0,   -0.0,   -0.1,   -0.1,   -0.1,   -0.1,   -0.1,   -0.1,   -0.0,   -0.1,   -0.1,   -0.1,   -0.1,   -0.0,   -0.1,    0.0,    0.0,    0.1,   -0.1,   -0.1,   -0.1,    0.0,    0.0,    0.1,   -0.0,   -0.1,   -0.1,   -0.0,   -0.0,   -0.1,    0.0,   -0.0,   -0.1,   -0.1,   -0.1,   -0.1,   -0.0,   -0.1,   -0.0,   -0.1,   -0.0,   -0.1,   -0.1,   -0.0,   -0.1,   -0.0,    0.0,   -0.0,   -0.1,   -0.1,   -0.1,    0.0,    0.0,    0.1
2012/02/07 20:50,    4.7,    2.5,  999.0,  -10.3,   -7.2,   -3.3,   -0.0,   -0.2,   -0.9,   -0.8,   -6.9,   -0.9,   -6.9,   -0.8,   -0.9,   -1.0,    4.2,    1.1,    0.8,    1.0,    0.1,    0.7,    0.8,   -4.4,    0.0,  -10.4,   -7.2,  -11.8,  -10.6,   -4.4,   -4.5,   -4.3,   -4.4,   -5.5,   -4.2,   -4.2,   -4.2,   -4.1,   -4.3,   -4.4,   -5.4,   -4.2,   -4.5,   -4.5,   -1.8,   -1.7,   -2.3,   -1.7,   -1.9,   -1.8,   -1.6,   -1.9,   -2.2,   -1.7,   -1.9,   -2.0,   -2.2,   -4.5,   -2.2,   -1.8,   -1.9,   -1.7,   -1.9,   -1.8,   -1.8,   -1.7,   -1.7,   -2.1,   -1.7,   -1.8,   -1.8,   -1.6,   -1.8,   -1.8,   -1.7,   -1.7,   -1.8,   -1.8,   -1.8,   -2.0
2012/02/07 21:00,  999.0,   -8.4,  999.0,  -14.7,   -6.1,  -10.9,   -8.7,  -11.9,  -13.4,  -17.8,  -11.9,   -8.9,  -14.8,  -13.3,  -13.5,  -12.0,  -13.4,  -13.2,  -12.0,  -13.3,  -13.4,  -13.4,  -12.0,   -8.8,   -8.9,   -8.6,   -9.0,  -16.2,  -16.2,  -16.2,  -17.8,  -17.5,  -17.7,  -17.9,  -17.8,  -17.8,  -17.9,  -17.8,  -17.9,  -11.8,  -17.7,  -17.8,  -18.0,  -17.9,  -17.8,  -17.7,  -17.8,  -17.7,  -17.7,  -17.7,  -17.7,  -17.7,  -17.7,  -17.7,  -17.7,  -17.7,  -17.8,  -17.7,  -17.7,  -17.7,  -17.7,  -17.7,  -17.7,  -17.7,  -17.7,  -17.7,  -17.8,  -17.8,  -17.9,  -11.8,  -13.2,  -17.6,  -17.9,  -17.9,  -17.8,  -17.7,  -17.8,  -17.7,  -11.9,  -16.3
2012/02/07 21:10,    0.3,   -0.2,    4.3,    4.4,    5.1,    5.1,    6.5,   12.9,    6.4,    6.5,    5.1,    5.1,    5.2,    5.3,    5.2,    6.9,    5.2,    5.2,    5.2,    5.1,    6.5,    8.6,    8.7,    6.4,    6.5,    6.6,    6.5,    6.5,    6.5,    6.5,    6.4,    8.7,    8.7,    8.7,    8.6,    8.6,    8.7,    8.6,    8.6,    8.6,    8.7,    5.5,    5.6,    5.6,    5.7,    5.6,    5.6,    8.5,    5.6,    5.7,    4.4,    4.4,    4.3,    4.2,    4.4,    4.4,    4.4,    4.3,    4.3,    4.3,    4.3,    5.8,    5.8,    5.8,    5.8,    5.8,    5.8,    5.7,    5.7,    5.7,    5.8,    5.7,    5.7,    5.8,    5.9,  999.0,    5.7,    4.3,    4.3,    3.4
2012/02/07 21:20,  999.0,  999.0,  999.0,    0.4,    0.1,    1.5,   -0.0,    1.5,    1.6,    1.6,    1.6,    1.6,   -0.1,    1.5,    1.6,   -0.2,    1.7,   -0.1,   -0.1,   -0.1,   -0.1,   -0.1,   -0.1,   -0.1,   -0.1,    1.6,    1.6,    1.6,    1.7,    1.6,    1.6,    1.6,    1.6,    1.5,   -0.4,    1.6,    3.4,    1.5,    1.6,    1.6,    1.6,    1.6,   -0.1,   -0.2,   -0.1,   -0.2,   -0.0,   -0.2,   -0.2,   -0.2,   -2.8,   -2.7,   -2.7,   -0.2,   -2.7,   -0.2,   -0.2,   -0.2,   -0.1,   -0.1,   -0.2,   -0.2,   -0.2,   -0.1,   -0.2,   -0.2,   -0.1,   -0.2,   -0.2,   -0.1,   -0.1,   -0.3,   -0.1,   -0.1,   -0.1,   -0.2,   -0.1,   -0.1,   -0.1,   -0.1
2012/02/07 21:30,  999.0,  999.0,  999.0,   26.5,   13.0,   13.6,   13.3,    8.9,   13.1,   13.3,   13.3,   13.3,   13.2,   13.5,   13.2,   13.2,   13.2,   13.5,   13.2,   13.3,    8.7,   13.4,    9.0,   13.4,   13.2,   13.3,    8.7,   13.3,   13.3,   13.3,   13.2,   13.4,    8.8,   13.2,   13.3,   13.3,   13.3,   13.3,   13.3,   13.2,   13.3,   13.3,   13.3,   13.3,   13.2,   13.3,   13.3,   13.5,   13.2,   13.3,    8.7,   13.4,   13.3,   13.3,   13.2,   13.3,    8.7,   13.3,   13.3,   13.3,   13.2,   13.3,   13.3,   13.3,   13.2,   13.3,   13.3,   13.3,   13.3,   13.3,   13.3,   13.3,   13.3,   13.4,   13.2,   13.3,   13.3,   13.5,   13.2,   13.3
2012/02/07 21:40,  999.0,  -17.5,  -18.3,  -17.6,  -17.7,  -17.5,  -18.1,  -17.7,   -8.8,   -8.8,  -10.3,  -10.3,  -10.3,  -10.4,  -10.5,   -7.1,   -8.9,  -12.4,   -8.9,   -8.8,   -8.8,   -8.9,  -10.5,   -8.8,   -9.0,  -10.6,   -8.9,   -8.9,  -10.6,   -8.9,   -8.9,   -8.9,   -8.9,   -8.8,   -8.9,   -8.8,   -8.9,   -8.8,   -8.9,   -8.8,   -8.9,   -8.8,  -10.3,   -8.8,   -8.9,   -8.8,   -8.9,   -8.8,   -8.9,   -8.8,   -9.0,   -8.9,  -10.5,   -8.8,   -8.9,   -7.1,   -8.9,   -8.9,   -8.9,   -8.9,   -8.9,   -8.9,   -7.1,   -8.8,   -8.9,   -8.8,  -10.6,   -8.8,   -8.9,   -8.8,   -8.9,   -6.7,  -17.8,  -17.7,  -17.7,  -17.7,  -17.7,  -17.7,  -17.8,  -17.6
2012/02/07 21:50,  999.0,  999.0,    8.5,   -4.3,   -2.1,   -0.2,    0.0,    0.1,   -0.0,   -2.3,    0.0,    0.1,   -0.0,   -0.0,   -0.0,    2.0,    0.0,   -0.1,    0.1,   -0.1,   -2.4,   -0.0,    0.1,   -0.3,   -0.0,    0.0,   -0.0,   -0.1,   -0.0,   -0.0,   -0.1,    2.2,   -0.0,    0.1,   -0.1,   -0.0,    1.8,   -2.3,    1.8,   -3.0,   -0.1,    2.0,   -0.1,   -0.1,   -3.0,   -3.0,   -0.1,   -0.1,    0.1,   -0.1,   -0.1,   -0.0,   -0.0,   -0.3,   -0.0,   -0.1,   -0.0,   -0.1,   -0.2,   -0.0,   -0.1,   -0.0,   -0.0,   -0.0,    0.0,   -0.0,   -0.0,   -0.1,    2.3,   -0.0,   -0.0,   -0.1,   -2.3,   -3.0,    0.0,   -3.0,    0.0,   -0.0,    0.1,   -0.0
2012/02/07 22:00,  999.0,  999.0,  999.0,    0.2,   -0.0,   -0.1,   -0.2,    0.1,   -0.1,   -0.2,   -0.2,   -0.1,   -0.0,   -0.0,   -0.1,    0.0,   -0.0,    0.1,   -0.1,    0.2,   -0.1,    0.1,    0.1,   -0.0,   -0.1,   -0.1,    0.0,    0.1,   -0.2,   -0.1,    0.0,    0.1,   -0.1,   -0.1,   -0.1,   -0.0,    0.1,   -0.3,   -0.1,   -0.0,    0.0,   -0.1,    0.1,    0.0,    0.0,   -0.2,    0.1,   -0.1,   -0.1,   -0.1,   -0.0,    0.1,    0.1,   -0.0,   -0.1,   -0.0,    0.0,    0.1,   -0.2,   -0.1,    0.0,    0.0,   -0.1,   -0.1,   -0.1,   -0.0,   -0.0,   -0.2,    0.0,   -0.0,   -0.0,   -0.1,   -0.1,    0.1,   -0.1,   -0.0,   -0.1,   -0.1,   -0.1,    0.1
2012/02/07 22:10,  999.0,  999.0,   -0.1,    0.1,   -0.2,    0.2,   -0.0,   -0.1,    0.0,    0.1,    0.0,    0.1,   -0.0,    0.0,   -0.0,    0.0,    0.0,    0.1,    0.1,   -0.1,   -0.0,    0.0,   -0.1,   -0.1,    0.0,    0.1,   -4.6,   -4.5,   -4.4,    0.0,   -0.0,   -4.4,   -4.5,   -4.4,    0.0,    0.1,   -0.2,   -0.2,   -0.1,    0.1,   -4.4,    0.1,   -4.4,   -4.4,   -4.5,   -4.4,   -0.2,    0.0,    0.1,   -0.1,   -0.0,    0.1,    0.0,   -0.1,   -0.1,    0.1,   -4.5,   -4.5,   -0.1,    0.0,   -0.0,   -4.4,   -4.5,   -4.4,   -4.4,    0.1,   -0.2,   -0.2,   -0.1,    0.1,   -0.0,    0.1,    0.1,    0.0,    0.1,   -0.0,   -0.0,   -0.1,    0.1,    0.0
2012/02/07 22:20,   -0.2,   -0.2,   -0.2,   -0.6,   -0.5,   -0.2,   -0.1,   -0.1,   -0.1,   -0.1,    0.0,   -0.1,   -0.1,   -0.1,   -0.0,   -0.2,   -0.0,   -0.0,    0.0,   -0.1,    0.0,    0.0,    0.0,    0.0,    0.1,    0.1,    0.0,   -0.1,   -0.1,   -0.0,    0.0,   -0.0,   -0.1,   -0.1,   -0.1,   -0.0,    0.0,   -0.1,   -0.1,   -0.1,   -0.0,    0.0,    0.0,   -0.1,    0.0,   -0.1,    0.0,   -0.0,    0.0,   -0.1,    0.0,    0.0,    0.0,    0.0,    0.1,    0.1,    0.0,   -0.1,   -0.1,   -0.0,    0.0,   -0.0,   -0.1,   -0.1,   -0.1,   -0.0,    0.0,   -0.1,   -0.0,   -0.2,   -0.2,   -0.1,   -0.2,   -0.1,   -0.1,   -0.3,    0.0,   -0.0,    0.0,    0.1
2012/02/07 22:30,  999.0,    8.7,    0.0,    0.0,    0.2,    0.2,    0.1,    0.1,    1.7,    1.7,    1.7,    1.8,    1.8,    1.7,    2.2,    1.6,    1.7,    1.7,    2.3,    1.7,    1.7,    1.7,    1.8,    2.1,    2.1,    2.0,    2.3,    2.3,    4.4,    4.2,    2.2,    4.3,    4.4,    2.1,    2.9,    2.3,    2.2,    2.2,    2.2,    1.7,    1.7,    1.8,    1.7,    1.7,    2.8,    2.0,    2.1,    2.0,    3.0,    2.1,    2.0,    2.0,    2.2,    2.0,    2.0,    2.0,    2.3,    2.2,    4.4,    4.2,    2.2,    5.8,    4.4,    2.1,    3.0,    2.3,    2.2,    2.1,    2.2,    2.1,    2.1,    2.1,    2.1,    2.9,    2.8,    2.0,    1.9,    2.1,    2.1,    2.1
2012/02/07 22:40,  999.0,  999.0,  999.0,  999.0,  999.0,  999.0,  999.0,  999.0,   -9.1,   -5.9,   -2.6,   -5.8,   -9.3,   -5.9,   -5.8,   -4.2,   -2.8,   -5.8,   -5.7,   -6.0,   -5.9,   -5.8,   -2.7,   -5.7,   -5.8,   -6.0,   -5.8,   -5.8,   -5.8,   -5.7,   -5.9,   -6.0,   -6.0,   -6.0,    4.6,   -5.8,   -5.9,   -6.0,   -6.0,   -2.8,   -2.8,   -5.7,   -5.9,   -6.0,   -6.0,   -8.8,    9.1,   -5.8,   -5.7,   -6.0,   -6.0,   -5.8,   -5.7,   -5.7,   -5.9,   -6.0,   -5.8,   -5.8,   -5.8,   -5.8,   -5.9,   -6.0,   -5.9,   -6.0,   -5.8,   -5.8,   -5.9,   -6.0,   -6.0,   -5.8,   -2.8,   -5.8,   -5.9,   -6.0,   -6.0,   -4.3,   -2.8,   -5.8,   -5.9,   -5.9
2012/02/07 22:50,  999.0,   -0.3,   -8.7,   -0.2,    0.1,   -0.2,   -0.1,   -0.3,   -0.2,   -2.0,   -1.9,   -2.1,   -2.0,   -2.0,   -2.0,   -2.0,   -1.9,   -1.9,   -1.9,   -1.9,   -1.9,   -2.0,   -2.0,   -2.0,   -2.0,   -1.9,   -2.0,   -2.0,   -1.9,   -1.9,   -2.1,   -2.0,   -0.3,   -2.3,   -2.1,   -2.0,   -2.0,   -2.1,   -0.3,   -2.1,   -1.9,   -2.0,   -2.1,   -2.1,   -2.0,   -2.0,   -2.0,   -2.0,   -2.0,   -1.9,   -2.0,   -2.0,   -2.0,   -2.0,   -3.7,   -1.9,   -2.0,   -2.0,   -1.9,   -1.9,   -2.1,   -2.0,   -0.4,   -2.0,   -2.0,   -0.4,   -2.0,   -2.0,   -0.3,   -2.1,   -2.3,   -2.0,   -2.1,   -2.1,   -2.0,   -2.0,   -2.0,   -2.0,   -2.0,   -1.9
2012/02/07 23:00,  999.0,  999.0,  -11.6,  -15.9,  -11.8,   -7.1,  -14.3,  -14.3,  -14.1,  -15.7,  -13.9,  -14.1,  -14.2,  -14.1,  -14.2,  -14.3,  -14.2,  -14.3,  -14.2,  -14.3,  -14.5,  -14.3,  -14.3,  -14.3,  -15.6,  -14.5,  -13.5,  -14.4,  -12.5,  -14.0,  -13.3,  -12.2,  -15.4,  -15.3,  -15.5,  -15.4,  -15.4,  -17.7,  -14.2,  -17.8,  -17.8,  -21.3,  -10.8,  -16.0,  -14.4,  -14.4,  -15.7,  -17.8,  -14.4,  -16.0,  -17.8,  -17.7,  -17.7,  -17.8,  -17.8,  -17.8,  -17.8,  -17.8,  -17.6,  -17.6,  -17.7,  -15.9,  -17.6,  -17.6,  -17.8,  -17.7,  -17.7,  -19.4,  -17.8,  -21.3,  -21.5,  -21.3,  -21.2,  -21.3,  -21.4,  -21.4,  -21.4,  -21.4,  -21.4,  -21.3
2012/02/07 23:10,    9.6,    9.0,    0.4,   -1.8,   -2.8,   -4.1,   -5.7,   -1.6,   -0.7,   -1.6,   -1.8,   -4.4,   -1.8,   -4.4,   -1.7,   -1.6,    0.2,    1.2,    1.0,    1.2,    1.0,    1.2,    1.1,    1.1,    1.0,    1.0,    1.1,    1.2,    0.9,    0.9,    0.9,    1.0,    1.0,    1.2,    1.0,   -2.1,    1.4,    1.3,    3.3,    1.5,   -0.8,    3.4,    3.4,    1.3,    3.4,    3.4,    3.4,    3.4,    3.4,    0.3,   -0.9,   -0.7,   -5.5,   -0.8,   -0.9,   -2.1,    0.2,   -0.8,   -0.9,   -0.9,    0.1,    0.3,    1.8,   -1.5,    0.1,   -3.5,    0.1,    0.1,    0.1,   -0.9,   -0.9,   -2.5,    0.2,   -1.5,   -0.7,   -4.2,   -1.3,    3.3,   -0.8,    0.2
2012/02/07 23:20,  999.0,    8.3,    8.7,    4.6,    6.0,    4.4,   -1.0,   -1.0,   -5.5,   -2.4,   -2.7,   -5.1,   -2.7,   -2.6,   -5.1,   -2.6,   -2.7,   -3.4,   -3.5,   -3.5,   -3.4,   -3.5,   -3.4,   -2.6,   -2.7,   -3.5,   -1.8,   -3.4,   -3.5,   -3.6,   -1.8,   -3.6,   -3.7,   -3.6,   -3.6,   -3.6,   -3.6,   -2.7,   -4.4,   -3.7,   -4.4,   -3.6,   -4.4,   -3.7,   -3.6,   -3.6,   -3.7,   -4.3,   -4.3,   -3.6,   -1.6,   -2.6,   -1.6,   -3.5,   -3.6,   -3.6,   -3.7,   -4.3,   -3.6,   -3.6,   -3.6,   -2.7,   -2.7,   -3.6,   -3.6,   -3.6,   -3.6,   -3.4,   -4.4,   -3.6,   -4.4,   -3.6,   -4.4,   -3.6,   -3.6,   -3.6,   -3.7,   -3.5,   -4.3,   -3.6
2012/02/07 23:30,  999.0,    9.1,    8.5,   17.7,    6.8,    6.6,    6.1,    7.3,    8.9,    7.2,    7.5,    7.4,    7.4,    7.4,    7.3,    7.2,    7.3,    7.3,    7.4,    7.3,    7.3,    7.3,    7.4,    7.5,    7.4,    7.5,    7.5,    7.4,    7.5,    7.5,    7.7,   11.1,    7.4,    7.5,    7.6,    7.2,   11.7,   11.7,   11.8,   13.3,   14.1,   13.9,   14.0,   14.1,   14.0,   14.1,   13.3,   14.2,   15.9,   13.9,   14.1,   14.2,   14.1,   14.1,   14.1,   11.8,   11.9,   11.8,   10.8,   11.8,   11.9,   10.7,   11.7,   11.8,   11.8,   12.3,   14.1,   11.7,   11.8,   13.2,   14.1,   13.9,   14.0,   14.0,   14.0,   14.1,   14.1,   14.2,   15.9,   14.0
2012/02/07 23:40,    2.3,    0.3,    0.1,    0.2,  999.0,  999.0,  999.0,    4.5,    4.4,    4.4,    4.4,    4.4,    4.4,    4.3,    4.4,    4.4,    4.4,    4.3,    5.2,    4.3,    5.2,    5.1,    4.4,    5.1,    5.2,    5.1,    5.1,    5.2,    5.2,    5.2,    5.2,    5.1,    5.2,    5.2,    5.1,    5.2,    5.3,    5.1,    6.9,    5.2,    5.2,    5.2,    5.1,    5.1,    5.2,    5.2,    4.4,    4.3,    5.1,    5.1,    5.2,    5.1,    4.4,    5.1,    5.2,    5.1,    5.1,    5.2,    5.2,    5.2,    5.1,    5.1,    5.2,    5.2,    5.2,    5.2,    5.3,    5.1,    6.9,    5.2,    5.2,    5.2,    5.1,    5.2,    5.2,    5.2,    4.4,    4.3,    5.2,    5.2
2012/02/07 23:50,   -0.5,    0.1,    0.5,    0.5,    0.1,    0.1,   -0.0,   -0.2,   -0.1,   -0.1,   -0.2,    0.0,   -0.1,   -0.1,   -0.0,   -0.0,   -0.1,   -0.1,   -0.0,   -0.0,   -0.0,   -0.1,   -0.1,   -0.1,    0.0,    0.0,   -0.0,    0.0,    0.0,   -0.0,   -0.0,    0.0,   -0.0,   -1.8,   -1.9,   -1.9,   -1.9,   -1.9,   -1.9,   -1.9,   -1.9,   -1.9,   -1.9,   -3.7,   -1.9,   -1.9,   -1.9,   -3.7,   -1.9,    0.1,   -1.9,   -1.9,   -1.8,   -1.9,   -1.8,   -1.8,   -1.8,   -1.8,   -1.8,   -0.0,   -1.9,   -1.8,   -1.9,   -1.8,   -1.9,   -1.9,   -1.9,   -1.9,   -1.9,   -1.8,   -1.9,   -1.9,   -1.9,   -3.7,   -1.9,   -1.9,   -1.9,   -3.7,   -1.9,    0.1
